FW6030 Weather Reports


time (UTC)temp
C
wind
direction
speed
KPH
gust
KPH
rain 1hr
cm
rain 24hr
cm
rain mn
cm
humidity
%
barometer
mb
20260905044226 27 360 12.9 20.9 0.00 0.00 0.00 77 1015.1
20260905044146 27 360 12.9 24.1 0.00 0.00 0.00 77 1015.1
20260905044030 27 360 12.9 24.1 0.00 0.00 0.00 76 1015.1
20260905043930 27 360 11.3 29.0 0.00 0.00 0.00 76 1015.0
20260905043832 27 360 12.9 29.0 0.00 0.00 0.00 76 1015.1
20260905043732 27 360 12.9 29.0 0.00 0.00 0.00 76 1015.1
20260905043632 27 360 14.5 29.0 0.00 0.00 0.00 76 1015.1
20260905043532 27 360 11.3 29.0 0.00 0.00 0.00 76 1015.1
20260905043454 27 360 11.3 29.0 0.00 0.00 0.00 76 1015.2
20260905043317 27 360 16.1 29.0 0.00 0.00 0.00 76 1015.2
20260905043218 27 360 16.1 29.0 0.00 0.00 0.00 76 1015.1
20260905043119 27 360 16.1 29.0 0.00 0.00 0.00 76 1015.2
20260905043018 27 360 12.9 25.7 0.00 0.00 0.00 76 1015.2
20260905042920 27 360 11.3 17.7 0.00 0.00 0.00 76 1015.2
20260905042823 27 360 11.3 17.7 0.00 0.00 0.00 76 1015.2
20260905042722 27 360 11.3 20.9 0.00 0.00 0.00 76 1015.2
20260905042627 27 360 11.3 20.9 0.00 0.00 0.00 76 1015.2
20260905042528 27 360 11.3 20.9 0.00 0.00 0.00 76 1015.1
20260905042429 27 360 12.9 20.9 0.00 0.00 0.00 76 1015.1
20260905042330 27 360 12.9 20.9 0.00 0.00 0.00 76 1015.1
20260905042230 27 360 11.3 20.9 0.00 0.00 0.00 76 1015.1
20260905042150 27 360 12.9 22.5 0.00 0.00 0.00 76 1015.1
20260905042029 27 360 12.9 22.5 0.00 0.00 0.00 75 1015.0
20260905041934 27 360 12.9 22.5 0.00 0.00 0.00 75 1015.0
20260905041833 27 360 9.7 27.4 0.00 0.00 0.00 75 1015.0
20260905041734 27 360 8.0 27.4 0.00 0.00 0.00 76 1015.0
20260905041634 27 360 9.7 27.4 0.00 0.00 0.00 76 1015.1
20260905041535 27 360 12.9 27.4 0.00 0.00 0.00 75 1015.0
20260905041435 27 360 14.5 27.4 0.00 0.00 0.00 75 1015.0
20260905041320 27 360 16.1 27.4 0.00 0.00 0.00 75 1015.0
20260905041221 27 360 14.5 27.4 0.00 0.00 0.00 75 1015.1
20260905041123 27 360 12.9 27.4 0.00 0.00 0.00 75 1015.0
20260905041024 27 360 12.9 27.4 0.00 0.00 0.00 75 1015.1
20260905040924 27 360 11.3 22.5 0.00 0.00 0.00 75 1015.1
20260905040825 27 360 14.5 22.5 0.00 0.00 0.00 75 1015.1
20260905040725 27 360 14.5 27.4 0.00 0.00 0.00 75 1015.1
20260905040628 27 360 12.9 27.4 0.00 0.00 0.00 75 1015.1
20260905040529 27 360 12.9 27.4 0.00 0.00 0.00 75 1015.1
20260905040430 27 360 11.3 27.4 0.00 0.00 0.00 75 1015.1
20260905040330 27 360 11.3 27.4 0.00 0.00 0.00 75 1015.1
20260905040232 27 360 14.5 27.4 0.00 0.00 0.00 75 1015.1
20260905040131 27 360 14.5 27.4 0.00 0.00 0.00 75 1015.2
20260905040016 27 360 14.5 27.4 0.00 0.00 0.00 75 1015.1
20260905035917 27 360 12.9 27.4 0.00 0.00 0.00 75 1015.2
20260905035817 27 360 11.3 27.4 0.00 0.00 0.00 75 1015.1
20260905035738 27 360 11.3 27.4 0.00 0.00 0.00 74 1015.2
20260905035616 27 360 12.9 27.4 0.00 0.00 0.00 75 1015.1
20260905035518 28 360 14.5 27.4 0.00 0.00 0.00 74 1015.1
20260905035419 28 360 14.5 27.4 0.00 0.00 0.00 74 1015.1
20260905035340 28 360 14.5 27.4 0.00 0.00 0.00 74 1015.0
20260905035224 28 360 16.1 27.4 0.00 0.00 0.00 74 1015.0
20260905035124 28 360 14.5 27.4 0.00 0.00 0.00 74 1015.1
20260905035045 27 360 14.5 27.4 0.00 0.00 0.00 74 1015.0
20260905034924 28 360 12.9 19.3 0.00 0.00 0.00 74 1015.1
20260905034824 28 360 12.9 20.9 0.00 0.00 0.00 74 1015.1
20260905034725 28 360 12.9 20.9 0.00 0.00 0.00 74 1015.1
20260905034624 28 360 12.9 20.9 0.00 0.00 0.00 74 1015.1
20260905034529 28 360 11.3 20.9 0.00 0.00 0.00 74 1015.1
20260905034451 28 360 11.3 20.9 0.00 0.00 0.00 74 1015.1
20260905034331 28 360 12.9 20.9 0.00 0.00 0.00 74 1015.0
20260905034231 28 360 12.9 20.9 0.00 0.00 0.00 74 1015.0
20260905034131 28 360 14.5 20.9 0.00 0.00 0.00 74 1015.0
20260905034032 28 360 14.5 20.9 0.00 0.00 0.00 74 1015.0
20260905033933 28 360 12.9 20.9 0.00 0.00 0.00 74 1015.1
20260905033837 28 360 12.9 20.9 0.00 0.00 0.00 74 1015.1
20260905033717 28 360 12.9 20.9 0.00 0.00 0.00 73 1015.1
20260905033617 28 360 14.5 24.1 0.00 0.00 0.00 73 1015.1
20260905033538 28 360 14.5 24.1 0.00 0.00 0.00 73 1015.0
20260905033417 28 360 14.5 24.1 0.00 0.00 0.00 73 1015.0
20260905033318 28 360 14.5 24.1 0.00 0.00 0.00 73 1015.1
20260905033239 28 360 14.5 24.1 0.00 0.00 0.00 73 1015.0
20260905033119 28 360 12.9 24.1 0.00 0.00 0.00 73 1015.0
20260905033044 28 360 12.9 24.1 0.00 0.00 0.00 73 1015.0
20260905032924 28 360 12.9 24.1 0.00 0.00 0.00 73 1015.1
20260905032826 28 360 12.9 24.1 0.00 0.00 0.00 73 1015.0
20260905032726 28 360 12.9 24.1 0.00 0.00 0.00 73 1014.9
20260905032627 28 360 12.9 24.1 0.00 0.00 0.00 73 1014.9
20260905032549 28 360 14.5 24.1 0.00 0.00 0.00 73 1014.9
20260905032429 28 360 14.5 24.1 0.00 0.00 0.00 73 1015.0
20260905032333 28 360 14.5 24.1 0.00 0.00 0.00 73 1014.8
20260905032253 28 360 16.1 24.1 0.00 0.00 0.00 73 1015.0
20260905032133 28 161 16.1 24.1 0.00 0.00 0.00 73 1014.9
20260905032033 28 360 16.1 22.5 0.00 0.00 0.00 73 1014.9
20260905031933 28 360 14.5 22.5 0.00 0.00 0.00 73 1014.9
20260905031834 28 360 12.9 22.5 0.00 0.00 0.00 73 1014.8
20260905031735 28 360 11.3 22.5 0.00 0.00 0.00 72 1015.3
20260905031619 28 150 9.7 22.5 0.00 0.00 0.00 72 1015.0
20260905031519 28 360 11.3 22.5 0.00 0.00 0.00 72 1015.0
20260905031440 28 360 12.9 22.5 0.00 0.00 0.00 72 1015.0
20260905031320 28 360 14.5 22.5 0.00 0.00 0.00 72 1015.0
20260905031220 28 360 16.1 22.5 0.00 0.00 0.00 72 1014.9
20260905031121 28 360 14.5 22.5 0.00 0.00 0.00 72 1014.9
20260905031022 28 360 12.9 22.5 0.00 0.00 0.00 72 1014.9
20260905030925 28 360 12.9 22.5 0.00 0.00 0.00 72 1015.0
20260905030826 28 360 12.9 22.5 0.00 0.00 0.00 72 1015.0
20260905030727 28 360 12.9 22.5 0.00 0.00 0.00 72 1014.9
20260905030627 28 360 14.5 22.5 0.00 0.00 0.00 72 1014.9
20260905030528 28 360 16.1 22.5 0.00 0.00 0.00 72 1014.8
20260905030428 28 360 16.1 22.5 0.00 0.00 0.00 72 1014.9
20260905030332 28 360 12.9 22.5 0.00 0.00 0.00 72 1014.9
20260905030233 28 360 11.3 20.9 0.00 0.00 0.00 72 1014.8
20260905030133 28 360 9.7 20.9 0.00 0.00 0.00 71 1014.8
20260905030034 28 360 12.9 20.9 0.00 0.00 0.00 71 1014.9
20260905025934 28 360 12.9 20.9 0.00 0.00 0.00 71 1014.9
20260905025836 28 360 14.5 20.9 0.00 0.00 0.00 71 1014.9
20260905025720 28 360 14.5 20.9 0.00 0.00 0.00 71 1014.8
20260905025640 28 360 14.5 22.5 0.00 0.00 0.00 70 1014.8
20260905025520 28 360 14.5 22.5 0.00 0.00 0.00 70 1014.8
20260905025420 28 360 12.9 22.5 0.00 0.00 0.00 70 1014.7
20260905025320 28 360 14.5 22.5 0.00 0.00 0.00 70 1014.8
20260905025221 28 360 14.5 22.5 0.00 0.00 0.00 70 1014.7
20260905025121 28 360 14.5 22.5 0.00 0.00 0.00 70 1014.7
20260905025025 28 360 14.5 22.5 0.00 0.00 0.00 70 1014.7
20260905024926 28 360 14.5 22.5 0.00 0.00 0.00 70 1014.7
20260905024829 28 360 16.1 22.5 0.00 0.00 0.00 70 1014.7
20260905024728 28 360 14.5 19.3 0.00 0.00 0.00 70 1014.7
20260905024629 28 360 12.9 19.3 0.00 0.00 0.00 70 1014.7
20260905024528 28 360 11.3 19.3 0.00 0.00 0.00 70 1014.7
20260905024429 28 360 9.7 17.7 0.00 0.00 0.00 69 1014.7
20260905024334 28 360 11.3 17.7 0.00 0.00 0.00 69 1014.7
20260905024255 28 360 11.3 17.7 0.00 0.00 0.00 69 1014.6
20260905024135 28 360 9.7 14.5 0.00 0.00 0.00 69 1014.6
20260905024034 28 360 8.0 14.5 0.00 0.00 0.00 69 1014.5
20260905023934 28 360 6.4 9.7 0.00 0.00 0.00 69 1014.6
20260905023833 28 360 6.4 9.7 0.00 0.00 0.00 69 1014.6
20260905023735 28 360 4.8 9.7 0.00 0.00 0.00 69 1014.6
20260905023633 28 360 4.8 9.7 0.00 0.00 0.00 69 1014.7
20260905023518 28 360 4.8 9.7 0.00 0.00 0.00 69 1014.7
20260905023419 28 360 4.8 9.7 0.00 0.00 0.00 69 1014.6
20260905023319 28 360 4.8 9.7 0.00 0.00 0.00 69 1014.6
20260905023219 28 360 4.8 9.7 0.00 0.00 0.00 69 1014.7
20260905023118 28 360 4.8 9.7 0.00 0.00 0.00 69 1014.6
20260905023040 28 360 4.8 9.7 0.00 0.00 0.00 69 1014.6
20260905022939 28 360 4.8 9.7 0.00 0.00 0.00 69 1014.6
20260905022819 28 360 4.8 9.7 0.00 0.00 0.00 69 1014.6
20260905022723 28 360 4.8 8.0 0.00 0.00 0.00 69 1014.5
20260905022624 28 360 4.8 8.0 0.00 0.00 0.00 69 1014.5
20260905022524 28 360 4.8 9.7 0.00 0.00 0.00 69 1014.5
20260905022425 28 360 4.8 9.7 0.00 0.00 0.00 68 1014.5
20260905022345 28 360 4.8 9.7 0.00 0.00 0.00 68 1014.5
20260905022224 28 360 4.8 9.7 0.00 0.00 0.00 68 1014.4
20260905022126 28 360 4.8 9.7 0.00 0.00 0.00 68 1014.4
20260905022030 28 360 4.8 9.7 0.00 0.00 0.00 68 1014.4
20260905021930 28 360 4.8 9.7 0.00 0.00 0.00 68 1014.3
20260905021831 28 360 4.8 9.7 0.00 0.00 0.00 68 1014.3
20260905021732 28 360 4.8 9.7 0.00 0.00 0.00 68 1014.3
20260905021632 28 360 4.8 8.0 0.00 0.00 0.00 68 1014.3
20260905021552 28 360 4.8 9.7 0.00 0.00 0.00 68 1014.3
20260905021417 28 360 4.8 9.7 0.00 0.00 0.00 68 1014.3
20260905021318 28 360 4.8 9.7 0.00 0.00 0.00 68 1014.3
20260905021238 28 360 4.8 9.7 0.00 0.00 0.00 68 1014.3
20260905021118 28 360 6.4 9.7 0.00 0.00 0.00 68 1014.3
20260905021038 28 360 6.4 9.7 0.00 0.00 0.00 68 1014.2
20260905020918 28 161 6.4 14.5 0.00 0.00 0.00 68 1014.2
20260905020839 28 360 6.4 14.5 0.00 0.00 0.00 68 1014.2
20260905020719 28 360 6.4 14.5 0.00 0.00 0.00 68 1014.2
20260905020623 28 360 4.8 14.5 0.00 0.00 0.00 68 1014.1
20260905020523 28 360 4.8 14.5 0.00 0.00 0.00 67 1014.1
20260905020423 28 360 4.8 16.1 0.00 0.00 0.00 67 1014.0
20260905020323 28 360 6.4 16.1 0.00 0.00 0.00 67 1014.1
20260905020224 28 360 6.4 16.1 0.00 0.00 0.00 67 1014.0
20260905020125 28 360 6.4 16.1 0.00 0.00 0.00 67 1014.0
20260905020026 28 360 8.0 16.1 0.00 0.00 0.00 67 1014.0
20260905015927 28 360 8.0 16.1 0.00 0.00 0.00 67 1014.0
20260905015853 28 360 9.7 17.7 0.00 0.00 0.00 67 1014.0
20260905015732 28 360 9.7 17.7 0.00 0.00 0.00 67 1014.0
20260905015631 28 360 9.7 17.7 0.00 0.00 0.00 67 1014.0
20260905015532 28 360 8.0 19.3 0.00 0.00 0.00 67 1014.1
20260905015433 28 360 9.7 19.3 0.00 0.00 0.00 67 1014.2
20260905015333 28 360 9.7 19.3 0.00 0.00 0.00 66 1014.1
20260905015218 29 360 11.3 19.3 0.00 0.00 0.00 66 1014.1
20260905015119 29 360 11.3 19.3 0.00 0.00 0.00 66 1014.1
20260905015019 29 360 11.3 19.3 0.00 0.00 0.00 66 1014.1
20260905014921 29 360 11.3 19.3 0.00 0.00 0.00 66 1014.1
20260905014821 29 360 12.9 19.3 0.00 0.00 0.00 66 1014.2
20260905014721 29 360 12.9 19.3 0.00 0.00 0.00 66 1014.1
20260905014642 29 360 11.3 19.3 0.00 0.00 0.00 66 1014.1
20260905014542 29 360 9.7 19.3 0.00 0.00 0.00 66 1014.1
20260905014426 29 360 9.7 19.3 0.00 0.00 0.00 66 1014.0
20260905014327 29 360 11.3 19.3 0.00 0.00 0.00 66 1014.1
20260905014247 29 360 11.3 19.3 0.00 0.00 0.00 66 1014.0
20260905014147 29 360 9.7 17.7 0.00 0.00 0.00 66 1014.0
20260905014046 29 360 9.7 17.7 0.00 0.00 0.00 66 1014.0
20260905013925 29 360 9.7 17.7 0.00 0.00 0.00 66 1014.0
20260905013826 29 360 11.3 19.3 0.00 0.00 0.00 66 1014.0
20260905013727 29 360 12.9 19.3 0.00 0.00 0.00 66 1014.0
20260905013632 29 360 12.9 19.3 0.00 0.00 0.00 66 1013.9
20260905013533 29 360 12.9 20.9 0.00 0.00 0.00 66 1013.9
20260905013454 29 360 12.9 20.9 0.00 0.00 0.00 66 1014.0
20260905013335 29 360 12.9 20.9 0.00 0.00 0.00 66 1014.0
20260905013235 29 360 12.9 20.9 0.00 0.00 0.00 66 1013.9
20260905013156 29 360 14.5 22.5 0.00 0.00 0.00 66 1013.9
20260905013055 29 360 12.9 22.5 0.00 0.00 0.00 66 1013.9
20260905012920 29 360 12.9 22.5 0.00 0.00 0.00 66 1013.9
20260905012841 29 360 12.9 22.5 0.00 0.00 0.00 66 1013.9
20260905012719 29 360 14.5 22.5 0.00 0.00 0.00 66 1013.8
20260905012620 29 360 16.1 22.5 0.00 0.00 0.00 66 1013.9
20260905012520 29 360 14.5 22.5 0.00 0.00 0.00 66 1013.9
20260905012421 29 360 14.5 22.5 0.00 0.00 0.00 66 1013.9
20260905012322 29 360 12.9 22.5 0.00 0.00 0.00 66 1013.8
20260905012227 29 360 14.5 22.5 0.00 0.00 0.00 66 1013.9
20260905012127 29 360 14.5 22.5 0.00 0.00 0.00 66 1013.8
20260905012028 29 360 12.9 22.5 0.00 0.00 0.00 67 1013.9
20260905011928 29 360 12.9 22.5 0.00 0.00 0.00 67 1013.8
20260905011848 29 360 11.3 22.5 0.00 0.00 0.00 66 1013.9
20260905011728 30 360 14.5 22.5 0.00 0.00 0.00 66 1013.9
20260905011628 30 360 12.9 20.9 0.00 0.00 0.00 66 1013.9
20260905011549 30 360 12.9 20.9 0.00 0.00 0.00 66 1013.8
20260905011433 30 360 12.9 20.9 0.00 0.00 0.00 66 1013.8
20260905011354 30 360 12.9 20.9 0.00 0.00 0.00 66 1013.9
20260905011233 30 360 12.9 20.9 0.00 0.00 0.00 66 1013.8
20260905011153 30 360 14.5 20.9 0.00 0.00 0.00 66 1013.8
20260905011033 30 360 14.5 19.3 0.00 0.00 0.00 66 1013.8
20260905010933 30 360 12.9 17.7 0.00 0.00 0.00 66 1013.8
20260905010834 30 360 11.3 17.7 0.00 0.00 0.00 66 1013.8
20260905010718 30 360 9.7 17.7 0.00 0.00 0.00 66 1013.8
20260905010616 30 360 9.7 17.7 0.00 0.00 0.00 66 1013.8
20260905010536 30 360 9.7 17.7 0.00 0.00 0.00 65 1013.8
20260905010456 30 360 8.0 25.7 0.00 0.00 0.00 66 1013.8
20260905010356 30 360 8.0 25.7 0.00 0.00 0.00 65 1013.7
20260905010236 30 360 9.7 25.7 0.00 0.00 0.00 65 1013.8
20260905010156 30 360 11.3 25.7 0.00 0.00 0.00 65 1013.8
20260905010035 30 360 11.3 25.7 0.00 0.00 0.00 65 1013.7
20260905005920 30 360 12.9 25.7 0.00 0.00 0.00 65 1013.7
20260905005822 30 360 14.5 25.7 0.00 0.00 0.00 65 1013.8
20260905005721 30 360 16.1 25.7 0.00 0.00 0.00 65 1013.7
20260905005620 30 360 17.7 25.7 0.00 0.00 0.00 65 1013.8
20260905005521 30 360 16.1 24.1 0.00 0.00 0.00 65 1013.6
20260905005422 30 360 16.1 25.7 0.00 0.00 0.00 65 1013.7
20260905005321 30 360 14.5 27.4 0.00 0.00 0.00 64 1013.7
20260905005222 30 360 16.1 27.4 0.00 0.00 0.00 64 1013.7
20260905005126 30 360 16.1 27.4 0.00 0.00 0.00 64 1013.7
20260905005027 30 360 16.1 27.4 0.00 0.00 0.00 64 1013.7
20260905004926 30 360 12.9 27.4 0.00 0.00 0.00 64 1013.7
20260905004827 30 360 14.5 27.4 0.00 0.00 0.00 64 1013.7
20260905004727 30 360 16.1 27.4 0.00 0.00 0.00 64 1013.5
20260905004648 30 360 17.7 27.4 0.00 0.00 0.00 64 1013.6
20260905004527 30 360 16.1 27.4 0.00 0.00 0.00 64 1013.6
20260905004427 30 360 14.5 22.5 0.00 0.00 0.00 64 1013.6
20260905004332 30 360 14.5 22.5 0.00 0.00 0.00 63 1013.6
20260905004233 30 360 14.5 24.1 0.00 0.00 0.00 63 1013.5
20260905004133 30 360 14.5 24.1 0.00 0.00 0.00 64 1013.5
20260905004034 30 360 16.1 24.1 0.00 0.00 0.00 63 1013.4
20260905003934 30 360 16.1 30.6 0.00 0.00 0.00 63 1013.5
20260905003834 30 360 17.7 30.6 0.00 0.00 0.00 63 1013.4
20260905003719 31 154 16.1 30.6 0.00 0.00 0.00 63 1013.4
20260905003617 31 360 14.5 30.6 0.00 0.00 0.00 63 1013.4
20260905003517 31 360 14.5 30.6 0.00 0.00 0.00 62 1013.3
20260905003438 31 360 14.5 30.6 0.00 0.00 0.00 62 1013.3
20260905003318 31 360 14.5 30.6 0.00 0.00 0.00 62 1013.3
20260905003219 31 360 16.1 30.6 0.00 0.00 0.00 62 1013.4
20260905003120 31 360 17.7 30.6 0.00 0.00 0.00 62 1013.3
20260905003024 31 360 17.7 27.4 0.00 0.00 0.00 62 1013.3
20260905002924 31 360 19.3 27.4 0.00 0.00 0.00 62 1013.3
20260905002826 31 360 19.3 27.4 0.00 0.00 0.00 61 1013.3
20260905002726 31 360 14.5 27.4 0.00 0.00 0.00 61 1013.3
20260905002646 31 360 12.9 25.7 0.00 0.00 0.00 61 1013.3
20260905002526 31 360 16.1 25.7 0.00 0.00 0.00 61 1013.3
20260905002426 31 360 17.7 25.7 0.00 0.00 0.00 61 1013.3
20260905002330 31 360 19.3 25.7 0.00 0.00 0.00 61 1013.4
20260905002231 31 360 19.3 25.7 0.00 0.00 0.00 60 1013.3
20260905002132 31 360 19.3 25.7 0.00 0.00 0.00 60 1013.3
20260905002033 31 360 17.7 25.7 0.00 0.00 0.00 60 1013.3
20260905001935 31 360 16.1 25.7 0.00 0.00 0.00 60 1013.3
20260905001835 31 360 16.1 25.7 0.00 0.00 0.00 60 1013.3
20260905001720 31 360 16.1 27.4 0.00 0.00 0.00 60 1013.3
20260905001620 31 150 12.9 27.4 0.00 0.00 0.00 60 1013.2
20260905001541 31 360 12.9 27.4 0.00 0.00 0.00 60 1013.2
20260905001420 31 360 14.5 27.4 0.00 0.00 0.00 60 1013.1
20260905001321 31 360 17.7 27.4 0.00 0.00 0.00 60 1013.1
20260905001221 31 360 17.7 27.4 0.00 0.00 0.00 59 1013.2
20260905001121 31 360 17.7 27.4 0.00 0.00 0.00 59 1013.2
20260905001025 31 143 14.5 27.4 0.00 0.00 0.00 59 1013.1
20260905000926 31 360 14.5 24.1 0.00 0.00 0.00 59 1013.1
20260905000827 31 360 12.9 20.9 0.00 0.00 0.00 59 1013.0
20260905000727 31 360 12.9 29.0 0.00 0.00 0.00 59 1013.1
20260905000626 31 360 12.9 29.0 0.00 0.00 0.00 59 1013.1
20260905000527 31 360 11.3 29.0 0.00 0.00 0.00 59 1013.0
20260905000428 31 360 9.7 29.0 0.00 0.00 0.00 59 1013.1
20260905000333 31 360 11.3 29.0 0.00 0.00 0.00 59 1013.0
20260905000233 31 360 12.9 29.0 0.00 0.00 0.00 59 1013.1
20260905000134 31 360 17.7 29.0 0.00 0.00 0.00 58 1013.0
20260905000035 31 360 17.7 29.0 0.00 0.00 0.00 58 1013.0
20260904235935 31 360 17.7 29.0 0.00 0.00 0.00 58 1013.0
20260904235836 32 360 16.1 27.4 0.00 0.00 0.00 58 1013.0
20260904235720 32 360 11.3 29.0 0.00 0.00 0.00 57 1013.0
20260904235641 32 360 8.0 29.0 0.00 0.00 0.00 56 1013.0
20260904235520 32 138 11.3 29.0 0.00 0.00 0.00 56 1012.9
20260904235421 32 360 12.9 29.0 0.00 0.00 0.00 53 1013.0
20260904235321 32 360 14.5 29.0 0.00 0.00 0.00 53 1012.9
20260904235221 32 360 16.1 29.0 0.00 0.00 0.00 53 1012.9
20260904235122 32 360 12.9 29.0 0.00 0.00 0.00 52 1012.9
20260904235022 32 360 12.9 29.0 0.00 0.00 0.00 52 1012.9
20260904234927 32 360 12.9 29.0 0.00 0.00 0.00 52 1012.9
20260904234828 32 360 16.1 29.0 0.00 0.00 0.00 52 1012.9
20260904234727 32 360 19.3 29.0 0.00 0.00 0.00 51 1012.9
20260904234628 32 360 17.7 25.7 0.00 0.00 0.00 51 1012.9
20260904234528 32 360 16.1 24.1 0.00 0.00 0.00 51 1012.9
20260904234430 32 360 14.5 24.1 0.00 0.00 0.00 51 1012.9
20260904234331 32 360 14.5 24.1 0.00 0.00 0.00 51 1012.9
20260904234216 32 360 14.5 24.1 0.00 0.00 0.00 50 1012.9
20260904234116 32 360 16.1 24.1 0.00 0.00 0.00 50 1013.0
20260904234018 32 360 16.1 24.1 0.00 0.00 0.00 50 1012.9
20260904233917 32 360 16.1 24.1 0.00 0.00 0.00 49 1013.0
20260904233818 32 360 16.1 24.1 0.00 0.00 0.00 49 1012.9
20260904233718 32 360 16.1 24.1 0.00 0.00 0.00 49 1012.9
20260904233623 32 360 14.5 24.1 0.00 0.00 0.00 49 1013.0
20260904233524 32 360 14.5 24.1 0.00 0.00 0.00 48 1012.9
20260904233425 32 143 12.9 19.3 0.00 0.00 0.00 48 1012.9
20260904233325 32 360 12.9 20.9 0.00 0.00 0.00 48 1012.9
20260904233225 32 360 11.3 20.9 0.00 0.00 0.00 48 1012.8
20260904233126 32 360 11.3 20.9 0.00 0.00 0.00 47 1012.8
20260904233026 32 360 12.9 20.9 0.00 0.00 0.00 48 1012.8
20260904232931 32 360 14.5 20.9 0.00 0.00 0.00 47 1012.9
20260904232832 32 360 11.3 20.9 0.00 0.00 0.00 47 1012.9
20260904232732 32 360 11.3 20.9 0.00 0.00 0.00 48 1012.9
20260904232631 32 360 12.9 20.9 0.00 0.00 0.00 48 1012.9
20260904232531 32 360 14.5 20.9 0.00 0.00 0.00 47 1012.8
20260904232432 32 360 14.5 20.9 0.00 0.00 0.00 47 1012.8
20260904232317 32 360 14.5 22.5 0.00 0.00 0.00 47 1012.8
20260904232216 32 360 11.3 22.5 0.00 0.00 0.00 47 1012.8
20260904232138 32 360 11.3 22.5 0.00 0.00 0.00 47 1012.9
20260904232017 32 360 11.3 22.5 0.00 0.00 0.00 47 1012.9
20260904231917 32 360 11.3 24.1 0.00 0.00 0.00 47 1012.9
20260904231837 32 360 9.7 24.1 0.00 0.00 0.00 46 1012.9
20260904231716 32 360 9.7 24.1 0.00 0.00 0.00 46 1012.9
20260904231618 32 360 11.3 24.1 0.00 0.00 0.00 46 1012.9
20260904231523 32 360 14.5 24.1 0.00 0.00 0.00 46 1012.9
20260904231424 32 360 14.5 24.1 0.00 0.00 0.00 46 1013.0
20260904231324 32 360 16.1 24.1 0.00 0.00 0.00 46 1013.0
20260904231225 32 360 14.5 24.1 0.00 0.00 0.00 45 1013.0
20260904231126 32 360 14.5 24.1 0.00 0.00 0.00 45 1012.9
20260904231025 32 360 14.5 22.5 0.00 0.00 0.00 45 1013.0
20260904230926 32 360 16.1 22.5 0.00 0.00 0.00 45 1013.0
20260904230830 32 360 14.5 22.5 0.00 0.00 0.00 44 1013.0
20260904230731 32 360 12.9 22.5 0.00 0.00 0.00 45 1013.0
20260904230652 32 360 9.7 22.5 0.00 0.00 0.00 46 1013.1
20260904230532 32 360 6.4 22.5 0.00 0.00 0.00 46 1013.0
20260904230431 32 360 4.8 19.3 0.00 0.00 0.00 46 1013.0
20260904230332 32 360 4.8 19.3 0.00 0.00 0.00 47 1013.0
20260904230233 32 360 4.8 19.3 0.00 0.00 0.00 48 1013.0
20260904230117 32 360 6.4 19.3 0.00 0.00 0.00 47 1013.1
20260904230018 32 360 8.0 19.3 0.00 0.00 0.00 47 1013.1
20260904225919 32 360 11.3 19.3 0.00 0.00 0.00 47 1013.1
20260904225820 32 360 14.5 19.3 0.00 0.00 0.00 47 1013.1
20260904225719 32 360 12.9 25.7 0.00 0.10 0.00 47 1013.1
20260904225619 32 360 12.9 29.0 0.00 0.10 0.00 47 1013.2
20260904225540 32 360 11.3 29.0 0.00 0.10 0.00 47 1013.2
20260904225419 32 360 12.9 29.0 0.00 0.10 0.00 47 1013.1
20260904225324 32 360 12.9 29.0 0.00 0.10 0.00 47 1013.2
20260904225225 32 360 14.5 29.0 0.00 0.10 0.00 47 1013.2
20260904225125 32 360 12.9 29.0 0.00 0.10 0.00 47 1013.2
20260904225026 32 360 16.1 29.0 0.00 0.10 0.00 46 1013.3
20260904224926 32 360 16.1 29.0 0.00 0.10 0.00 46 1013.2
20260904224827 32 360 16.1 29.0 0.00 0.10 0.00 47 1013.2
20260904224747 33 360 16.1 24.1 0.00 0.10 0.00 47 1013.2
20260904224626 33 360 16.1 24.1 0.00 0.10 0.00 47 1013.2
20260904224530 33 360 14.5 24.1 0.00 0.10 0.00 47 1013.2
20260904224430 33 360 11.3 24.1 0.00 0.10 0.00 47 1013.2
20260904224330 33 360 9.7 25.7 0.00 0.10 0.00 47 1013.1
20260904224231 33 360 9.7 25.7 0.00 0.10 0.00 48 1013.2
20260904224131 33 360 12.9 25.7 0.00 0.10 0.00 48 1013.2
20260904224032 33 360 14.5 25.7 0.00 0.10 0.00 48 1013.2
20260904223916 33 360 16.1 25.7 0.00 0.10 0.00 49 1013.3
20260904223816 33 360 16.1 25.7 0.00 0.10 0.00 48 1013.2
20260904223717 33 360 16.1 25.7 0.00 0.10 0.00 48 1013.2
20260904223637 33 360 14.5 25.7 0.00 0.10 0.00 48 1013.3
20260904223517 33 360 12.9 25.7 0.00 0.10 0.00 50 1013.3
20260904223417 33 360 11.3 27.4 0.00 0.10 0.00 50 1013.2
20260904223318 33 360 11.3 27.4 0.00 0.10 0.00 50 1013.2
20260904223222 32 360 11.3 27.4 0.00 0.10 0.00 51 1013.3
20260904223123 32 360 12.9 27.4 0.00 0.10 0.00 50 1013.3
20260904223024 32 360 16.1 27.4 0.00 0.10 0.00 50 1013.3
20260904222924 32 360 16.1 27.4 0.00 0.10 0.00 50 1013.3
20260904222826 32 360 14.5 27.4 0.00 0.10 0.00 50 1013.3
20260904222726 32 360 16.1 27.4 0.00 0.10 0.00 49 1013.3
20260904222631 32 360 16.1 27.4 0.00 0.10 0.00 49 1013.3
20260904222551 32 360 17.7 29.0 0.00 0.10 0.00 50 1013.3
20260904222430 32 360 17.7 32.2 0.00 0.10 0.00 49 1013.3
20260904222331 32 360 17.7 32.2 0.00 0.10 0.00 49 1013.3
20260904222231 32 360 17.7 32.2 0.00 0.10 0.00 49 1013.2
20260904222132 33 360 17.7 32.2 0.00 0.10 0.00 50 1013.3
20260904222033 33 360 17.7 32.2 0.00 0.10 0.00 51 1013.3
20260904221938 33 360 16.1 32.2 0.00 0.10 0.00 51 1013.4
20260904221817 32 360 16.1 32.2 0.00 0.10 0.00 52 1013.3
20260904221718 32 360 16.1 32.2 0.00 0.10 0.00 51 1013.3
20260904221620 33 360 16.1 32.2 0.00 0.10 0.00 52 1013.3
20260904221520 33 360 11.3 29.0 0.00 0.10 0.00 53 1013.3
20260904221420 33 360 9.7 29.0 0.00 0.10 0.00 53 1013.3
20260904221321 33 360 11.3 29.0 0.00 0.10 0.00 53 1013.3
20260904221225 33 360 14.5 29.0 0.00 0.10 0.00 52 1013.3
20260904221125 33 360 16.1 29.0 0.00 0.10 0.00 52 1013.2
20260904221027 33 360 14.5 29.0 0.00 0.10 0.00 51 1013.3
20260904220926 33 360 8.0 29.0 0.00 0.10 0.00 51 1013.2
20260904220827 33 360 6.4 19.3 0.00 0.10 0.00 51 1013.3
20260904220727 33 360 6.4 19.3 0.00 0.10 0.00 51 1013.3
20260904220626 33 360 11.3 19.3 0.00 0.10 0.00 51 1013.2
20260904220530 33 360 9.7 19.3 0.00 0.10 0.00 52 1013.3
20260904220430 33 360 8.0 19.3 0.00 0.10 0.00 53 1013.3
20260904220331 32 360 8.0 19.3 0.00 0.10 0.00 53 1013.3
20260904220232 33 360 9.7 20.9 0.00 0.10 0.00 53 1013.4
20260904220131 32 360 9.7 20.9 0.00 0.10 0.00 52 1013.4
20260904220032 32 360 9.7 20.9 0.00 0.10 0.00 52 1013.4
20260904215916 32 360 9.7 20.9 0.00 0.10 0.00 52 1013.4
20260904215818 32 360 11.3 22.5 0.00 0.10 0.00 52 1013.3
20260904215718 32 360 11.3 22.5 0.00 0.10 0.00 52 1013.4
20260904215618 32 360 9.7 22.5 0.00 0.10 0.00 52 1013.4
20260904215518 32 360 11.3 22.5 0.00 0.10 0.00 52 1013.5
20260904215438 32 360 9.7 22.5 0.00 0.10 0.00 52 1013.4
20260904215337 32 360 6.4 22.5 0.00 0.10 0.00 52 1013.4
20260904215216 32 360 9.7 22.5 0.00 0.10 0.00 52 1013.4
20260904215121 32 360 11.3 22.5 0.00 0.10 0.00 50 1013.5
20260904215022 32 360 12.9 20.9 0.00 0.10 0.00 50 1013.4
20260904214922 32 360 11.3 20.9 0.00 0.10 0.00 53 1013.5
20260904214843 32 360 11.3 20.9 0.00 0.10 0.00 53 1013.5
20260904214716 32 360 8.0 25.7 0.00 0.10 0.00 53 1013.5
20260904214618 32 360 8.0 25.7 0.00 0.10 0.00 55 1013.4
20260904214519 32 360 11.3 25.7 0.00 0.10 0.00 56 1013.4
20260904214422 32 360 12.9 25.7 0.00 0.10 0.00 56 1013.5
20260904214323 32 360 14.5 25.7 0.00 0.10 0.00 56 1013.6
20260904214224 32 360 12.9 25.7 0.00 0.10 0.00 55 1013.6
20260904214124 32 360 16.1 25.7 0.00 0.10 0.00 55 1013.6
20260904214025 32 360 17.7 25.7 0.00 0.10 0.00 54 1013.6
20260904213946 32 360 17.7 24.1 0.00 0.10 0.00 55 1013.7
20260904213825 32 360 12.9 22.5 0.00 0.10 0.00 56 1013.7
20260904213729 32 360 8.0 25.7 0.00 0.10 0.00 57 1013.6
20260904213630 32 360 8.0 25.7 0.00 0.10 0.00 57 1013.6
20260904213532 32 360 11.3 25.7 0.00 0.10 0.00 57 1013.7
20260904213452 32 360 12.9 25.7 0.00 0.10 0.00 56 1013.7
20260904213332 32 360 12.9 25.7 0.00 0.10 0.00 56 1013.7
20260904213233 32 360 14.5 25.7 0.00 0.10 0.00 54 1013.8
20260904213116 32 360 17.7 25.7 0.00 0.10 0.00 54 1013.7
20260904213037 32 360 17.7 25.7 0.00 0.10 0.00 56 1013.8
20260904212917 32 360 17.7 25.7 0.00 0.10 0.00 54 1013.8
20260904212839 32 360 16.1 30.6 0.00 0.10 0.00 57 1013.8
20260904212718 32 360 14.5 30.6 0.00 0.10 0.00 57 1013.8
20260904212618 32 360 12.9 30.6 0.00 0.10 0.00 57 1013.8
20260904212519 32 360 14.5 30.6 0.00 0.10 0.00 56 1013.8
20260904212420 32 360 11.3 30.6 0.00 0.10 0.00 56 1013.8
20260904212325 32 360 12.9 30.6 0.00 0.10 0.00 55 1013.8
20260904212226 32 360 11.3 30.6 0.00 0.10 0.00 56 1013.9
20260904212126 32 360 16.1 30.6 0.00 0.10 0.00 56 1013.8
20260904212027 32 360 16.1 30.6 0.00 0.10 0.00 55 1014.0
20260904211928 32 165 12.9 29.0 0.00 0.10 0.00 55 1014.0
20260904211848 32 360 11.3 29.0 0.00 0.10 0.00 54 1014.0
20260904211728 32 360 11.3 29.0 0.00 0.10 0.00 54 1013.9
20260904211632 32 360 14.5 29.0 0.00 0.10 0.00 54 1013.8
20260904211532 32 360 14.5 29.0 0.00 0.10 0.00 55 1014.0
20260904211432 32 360 12.9 29.0 0.00 0.10 0.00 56 1014.0
20260904211332 32 360 14.5 29.0 0.00 0.10 0.00 55 1013.9
20260904211232 32 360 16.1 29.0 0.00 0.10 0.00 56 1013.9
20260904211133 32 360 16.1 32.2 0.00 0.10 0.00 56 1013.9
20260904211017 32 360 16.1 32.2 0.00 0.10 0.00 55 1014.0
20260904210918 32 360 16.1 32.2 0.00 0.10 0.00 56 1014.0
20260904210819 32 360 16.1 32.2 0.00 0.10 0.00 56 1013.8
20260904210719 32 360 16.1 32.2 0.00 0.10 0.00 57 1013.9
20260904210619 32 360 19.3 32.2 0.00 0.10 0.00 56 1013.9
20260904210520 32 360 19.3 32.2 0.00 0.10 0.00 56 1013.9
20260904210425 32 360 19.3 32.2 0.00 0.10 0.00 57 1014.0
20260904210325 32 360 20.9 32.2 0.00 0.10 0.00 57 1013.9
20260904210226 32 360 16.1 32.2 0.00 0.10 0.00 57 1013.9
20260904210148 32 360 12.9 32.2 0.00 0.10 0.00 59 1013.9
20260904210026 32 360 14.5 30.6 0.00 0.10 0.00 58 1013.9
20260904205927 32 360 20.9 30.6 0.00 0.10 0.00 58 1014.0
20260904205829 32 360 22.5 30.6 0.00 0.10 0.00 58 1013.9
20260904205729 32 360 22.5 30.6 0.00 0.10 0.00 58 1014.0
20260904205632 32 360 19.3 30.6 0.00 0.10 0.00 57 1014.0
20260904205533 32 360 14.5 30.6 0.00 0.10 0.00 57 1014.0
20260904205433 32 360 12.9 30.6 0.00 0.10 0.00 57 1014.0
20260904205354 32 360 11.3 30.6 0.00 0.10 0.00 58 1013.9
20260904205235 32 360 12.9 30.6 0.00 0.10 0.00 58 1014.0
20260904205136 32 360 16.1 30.6 0.00 0.10 0.00 57 1014.0
20260904205035 32 360 17.7 30.6 0.00 0.10 0.00 57 1014.0
20260904204919 32 360 14.5 25.7 0.00 0.10 0.00 58 1014.0
20260904204840 32 360 17.7 24.1 0.00 0.10 0.00 57 1014.0
20260904204720 32 360 14.5 24.1 0.00 0.10 0.00 57 1014.0
20260904204621 32 360 16.1 24.1 0.00 0.10 0.00 56 1014.1
20260904204521 32 360 16.1 24.1 0.00 0.10 0.00 55 1014.0
20260904204421 32 360 16.1 24.1 0.00 0.10 0.00 55 1014.1
20260904204322 32 360 16.1 24.1 0.00 0.10 0.00 55 1014.1
20260904204227 32 360 14.5 24.1 0.00 0.10 0.00 56 1014.1
20260904204128 32 360 14.5 24.1 0.00 0.10 0.00 56 1014.3
20260904204049 32 360 14.5 24.1 0.00 0.10 0.00 56 1014.2
20260904203927 32 360 14.5 24.1 0.00 0.10 0.00 56 1014.2
20260904203828 32 360 16.1 24.1 0.00 0.10 0.00 56 1014.2
20260904203730 32 360 14.5 22.5 0.00 0.10 0.00 56 1014.2
20260904203629 32 360 11.3 22.5 0.00 0.10 0.00 55 1014.2
20260904203534 32 360 8.0 22.5 0.00 0.10 0.00 56 1014.2
20260904203434 32 360 9.7 22.5 0.00 0.10 0.00 57 1014.3
20260904203335 32 360 11.3 24.1 0.00 0.10 0.00 56 1014.3
20260904203217 32 360 12.9 25.7 0.00 0.10 0.00 57 1014.2
20260904203118 32 360 11.3 25.7 0.00 0.10 0.00 58 1014.3
20260904203038 32 360 12.9 25.7 0.00 0.10 0.00 57 1014.3
20260904202921 32 360 12.9 25.7 0.00 0.10 0.00 57 1014.2
20260904202843 32 360 12.9 25.7 0.00 0.10 0.00 57 1014.3
20260904202722 32 360 16.1 25.7 0.00 0.10 0.00 56 1014.3
20260904202622 33 360 14.5 25.7 0.00 0.10 0.00 56 1014.3
20260904202522 33 360 14.5 25.7 0.00 0.10 0.00 56 1014.4
20260904202421 33 360 11.3 19.3 0.00 0.10 0.00 56 1014.3
20260904202323 32 360 11.3 19.3 0.00 0.10 0.00 57 1014.4
20260904202243 32 360 9.7 16.1 0.00 0.10 0.00 57 1014.3
20260904202143 32 360 9.7 16.1 0.00 0.10 0.00 57 1014.4
20260904202027 32 360 8.0 16.1 0.00 0.10 0.00 57 1014.3
20260904201926 32 136 8.0 19.3 0.00 0.10 0.00 57 1014.4
20260904201827 32 360 6.4 19.3 0.00 0.10 0.00 61 1014.4
20260904201729 32 360 4.8 19.3 0.00 0.10 0.00 61 1014.4
20260904201629 32 360 3.2 19.3 0.00 0.10 0.00 61 1014.4
20260904201529 32 360 3.2 29.0 0.00 0.10 0.00 61 1014.4
20260904201434 32 360 6.4 29.0 0.00 0.10 0.00 61 1014.5
20260904201316 31 161 9.7 29.0 0.00 0.10 0.00 61 1014.4
20260904201216 31 360 11.3 29.0 0.00 0.10 0.00 60 1014.5
20260904201116 32 360 12.9 29.0 0.00 0.10 0.00 59 1014.5
20260904201018 32 360 14.5 29.0 0.00 0.10 0.00 60 1014.6
20260904200939 32 360 17.7 29.0 0.00 0.10 0.00 59 1014.5
20260904200818 32 360 17.7 29.0 0.00 0.10 0.00 58 1014.5
20260904200723 32 360 19.3 29.0 0.00 0.10 0.00 58 1014.6
20260904200643 32 360 16.1 29.0 0.00 0.10 0.00 58 1014.5
20260904200516 32 360 11.3 24.1 0.00 0.10 0.00 60 1014.6
20260904200416 32 360 11.3 24.1 0.00 0.10 0.00 59 1014.6
20260904200317 32 360 14.5 24.1 0.00 0.10 0.00 58 1014.5
20260904200217 32 360 17.7 24.1 0.00 0.10 0.00 58 1014.6
20260904200121 32 360 19.3 24.1 0.00 0.10 0.00 57 1014.6
20260904200022 32 360 16.1 24.1 0.00 0.10 0.00 57 1014.6
20260904195942 32 360 16.1 24.1 0.00 0.10 0.00 59 1014.6
20260904195824 32 360 14.5 24.1 0.00 0.10 0.00 59 1014.5
20260904195722 32 360 14.5 24.1 0.00 0.10 0.00 58 1014.5
20260904195643 32 360 14.5 24.1 0.00 0.10 0.00 57 1014.6
20260904195522 32 360 14.5 24.1 0.00 0.10 0.00 59 1014.6
20260904195443 32 360 11.3 24.1 0.00 0.10 0.00 60 1014.6
20260904195327 32 360 8.0 22.5 0.00 0.10 0.00 60 1014.6
20260904195248 32 360 8.0 22.5 0.00 0.10 0.00 61 1014.5
20260904195127 32 360 9.7 22.5 0.00 0.10 0.00 61 1014.7
20260904195027 32 360 12.9 22.5 0.00 0.10 0.00 61 1014.6
20260904194928 32 360 12.9 22.5 0.00 0.10 0.00 60 1014.7
20260904194829 32 360 11.3 22.5 0.00 0.10 0.00 60 1014.7
20260904194729 32 360 6.4 24.1 0.00 0.10 0.00 62 1014.6
20260904194634 32 360 4.8 24.1 0.00 0.10 0.00 61 1014.6
20260904194534 32 360 3.2 24.1 0.00 0.10 0.00 61 1014.6
20260904194416 32 360 8.0 24.1 0.00 0.10 0.00 61 1014.7
20260904194316 32 360 12.9 24.1 0.00 0.10 0.00 59 1014.8
20260904194237 32 360 14.5 25.7 0.00 0.10 0.00 59 1014.8
20260904194135 32 360 14.5 25.7 0.00 0.10 0.00 59 1014.8
20260904194016 32 360 11.3 25.7 0.00 0.10 0.00 60 1014.8
20260904193921 32 360 9.7 25.7 0.00 0.10 0.00 62 1014.9
20260904193822 32 360 8.0 25.7 0.00 0.10 0.00 62 1014.9
20260904193723 32 360 8.0 25.7 0.00 0.10 0.00 62 1015.0
20260904193623 32 360 9.7 25.7 0.00 0.10 0.00 62 1014.9
20260904193523 32 360 12.9 25.7 0.00 0.10 0.00 61 1015.0
20260904193423 32 360 12.9 22.5 0.00 0.10 0.00 61 1014.9
20260904193324 32 360 12.9 22.5 0.00 0.10 0.00 61 1014.9
20260904193228 32 360 12.9 22.5 0.00 0.10 0.00 63 1015.0
20260904193129 32 360 12.9 24.1 0.00 0.10 0.00 64 1014.9
20260904193028 32 165 12.9 24.1 0.00 0.10 0.00 64 1014.9
20260904192928 31 360 14.5 24.1 0.00 0.10 0.00 64 1014.9
20260904192829 31 360 12.9 24.1 0.00 0.10 0.00 64 1014.9
20260904192727 31 360 12.9 24.1 0.00 0.10 0.00 64 1014.9
20260904192628 31 360 11.3 25.7 0.00 0.10 0.00 64 1014.9
20260904192531 31 360 9.7 25.7 0.00 0.10 0.00 64 1014.9
20260904192432 32 360 8.0 27.4 0.00 0.10 0.00 64 1015.0
20260904192333 32 360 8.0 27.4 0.00 0.10 0.00 65 1015.0
20260904192233 32 360 6.4 27.4 0.00 0.10 0.00 65 1014.9
20260904192133 31 109 8.0 27.4 0.00 0.10 0.00 65 1015.0
20260904192054 31 360 12.9 27.4 0.00 0.10 0.00 66 1015.1
20260904191932 31 157 14.5 27.4 0.00 0.10 0.00 65 1015.2
20260904191817 31 360 16.1 27.4 0.00 0.10 0.00 66 1015.1
20260904191717 31 360 17.7 27.4 0.00 0.10 0.00 66 1015.2
20260904191617 31 360 14.5 27.4 0.00 0.10 0.00 66 1015.2
20260904191538 31 131 12.9 27.4 0.00 0.10 0.00 67 1015.1
20260904191418 31 360 9.7 22.5 0.00 0.10 0.00 67 1015.1
20260904191318 31 360 8.0 22.5 0.00 0.10 0.00 68 1015.2
20260904191219 31 360 9.7 22.5 0.00 0.10 0.00 68 1015.2
20260904191143 31 360 9.7 22.5 0.00 0.10 0.00 68 1015.2
20260904191016 31 169 12.9 22.5 0.00 0.10 0.00 67 1015.2
20260904190917 31 360 11.3 25.7 0.00 0.10 0.00 68 1015.3
20260904190817 31 360 11.3 25.7 0.00 0.10 0.00 68 1015.3
20260904190717 31 360 9.7 25.7 0.00 0.10 0.00 68 1015.3
20260904190637 31 360 11.3 25.7 0.00 0.10 0.00 68 1015.3
20260904190516 31 360 14.5 25.7 0.00 0.10 0.00 68 1015.2
20260904190441 31 360 16.1 25.7 0.00 0.10 0.00 67 1015.3
20260904190320 31 360 17.7 25.7 0.00 0.10 0.00 67 1015.4
20260904190219 30 360 17.7 25.7 0.00 0.10 0.00 69 1015.4
20260904190120 30 360 17.7 25.7 0.00 0.10 0.00 69 1015.4
20260904190022 30 360 17.7 22.5 0.00 0.10 0.00 69 1015.4
20260904185922 30 360 16.1 22.5 0.00 0.10 0.00 69 1015.4
20260904185844 30 360 11.3 22.5 0.00 0.10 0.00 69 1015.4
20260904185727 30 360 8.0 22.5 0.00 0.10 0.00 70 1015.4
20260904185627 30 360 9.7 27.4 0.00 0.10 0.00 70 1015.5
20260904185547 30 360 12.9 27.4 0.00 0.10 0.00 69 1015.4
20260904185427 30 360 14.5 27.4 0.00 0.10 0.00 69 1015.5
20260904185347 30 360 14.5 27.4 0.00 0.10 0.00 70 1015.4
20260904185228 30 360 12.9 27.4 0.00 0.10 0.00 70 1015.5
20260904185128 30 360 12.9 27.4 0.00 0.10 0.00 70 1015.5
20260904185029 30 360 14.5 27.4 0.00 0.10 0.00 70 1015.5
20260904184933 30 360 16.1 27.4 0.00 0.10 0.00 69 1015.5
20260904184853 30 360 14.5 27.4 0.00 0.10 0.00 70 1015.6
20260904184732 30 360 9.7 27.4 0.00 0.10 0.00 70 1015.5
20260904184653 30 360 6.4 20.9 0.00 0.10 0.00 71 1015.5
20260904184532 30 360 8.0 20.9 0.00 0.10 0.00 70 1015.5
20260904184432 30 360 11.3 20.9 0.00 0.10 0.00 71 1015.6
20260904184333 30 360 9.7 20.9 0.00 0.10 0.00 71 1015.7
20260904184254 30 360 9.7 20.9 0.00 0.10 0.00 71 1015.7
20260904184118 30 360 6.4 20.9 0.00 0.10 0.00 71 1015.7
20260904184018 30 360 8.0 20.9 0.00 0.10 0.00 71 1015.7
20260904183918 30 360 9.7 20.9 0.00 0.10 0.00 71 1015.9
20260904183817 30 360 12.9 20.9 0.00 0.10 0.00 71 1015.8
20260904183718 30 360 11.3 20.9 0.00 0.10 0.00 70 1015.8
20260904183618 30 360 9.7 20.9 0.00 0.10 0.00 72 1015.8
20260904183519 30 360 8.0 20.9 0.00 0.10 0.00 72 1015.8
20260904183423 30 360 8.0 20.9 0.00 0.10 0.00 72 1015.8
20260904183343 30 360 8.0 20.9 0.00 0.10 0.00 71 1015.8
20260904183222 30 360 9.7 19.3 0.00 0.10 0.00 71 1015.9
20260904183123 30 360 9.7 19.3 0.00 0.10 0.00 72 1015.9
20260904183022 30 360 12.9 19.3 0.00 0.10 0.00 72 1015.8
20260904182921 30 162 14.5 22.5 0.00 0.10 0.00 71 1015.9
20260904182822 30 360 14.5 22.5 0.00 0.10 0.00 71 1015.8
20260904182721 30 360 12.9 22.5 0.00 0.10 0.00 72 1015.8
20260904182620 30 360 12.9 22.5 0.00 0.10 0.00 71 1015.8
20260904182524 30 360 14.5 22.5 0.00 0.10 0.00 72 1015.8
20260904182426 30 140 14.5 22.5 0.00 0.10 0.00 72 1015.8
20260904182327 30 360 14.5 22.5 0.00 0.10 0.00 72 1015.8
20260904182227 30 157 11.3 22.5 0.00 0.10 0.00 72 1015.8
20260904182127 30 360 6.4 22.5 0.00 0.10 0.00 72 1015.8
20260904182029 30 360 4.8 19.3 0.00 0.10 0.00 72 1015.8
20260904181934 30 360 4.8 19.3 0.00 0.10 0.00 72 1015.8
20260904181833 30 360 4.8 19.3 0.00 0.10 0.00 73 1015.8
20260904181753 30 360 6.4 19.3 0.00 0.10 0.00 73 1015.9
20260904181632 30 360 6.4 19.3 0.00 0.10 0.00 72 1015.8
20260904181533 30 360 8.0 19.3 0.00 0.10 0.00 73 1015.9
20260904181434 30 360 8.0 19.3 0.00 0.10 0.00 74 1015.9
20260904181354 30 360 6.4 19.3 0.00 0.10 0.00 74 1015.9
20260904181218 29 360 6.4 17.7 0.00 0.10 0.00 73 1015.8
20260904181120 29 360 6.4 17.7 0.00 0.10 0.00 73 1015.9
20260904181041 29 360 8.0 17.7 0.00 0.10 0.00 73 1015.9
20260904180919 29 360 8.0 17.7 0.00 0.10 0.00 73 1015.9
20260904180820 29 360 6.4 17.7 0.00 0.10 0.00 74 1015.9
20260904180721 29 360 8.0 17.7 0.00 0.10 0.00 74 1015.9
20260904180642 29 360 8.0 17.7 0.00 0.10 0.00 74 1015.9
20260904180522 29 360 9.7 17.7 0.00 0.10 0.00 74 1015.9
20260904180426 29 360 9.7 17.7 0.00 0.10 0.00 74 1016.0
20260904180327 29 360 9.7 17.7 0.00 0.10 0.00 74 1015.9
20260904180227 29 360 8.0 17.7 0.00 0.10 0.00 74 1016.0
20260904180148 29 360 8.0 17.7 0.00 0.10 0.00 74 1015.9
20260904180027 28 360 9.7 17.7 0.00 0.10 0.00 75 1015.9
20260904175929 28 360 9.7 17.7 0.00 0.10 0.00 75 1015.9
20260904175831 28 360 11.3 17.7 0.00 0.10 0.00 75 1016.0
20260904175733 28 360 9.7 17.7 0.00 0.10 0.00 75 1016.0
20260904175632 28 360 8.0 17.7 0.00 0.10 0.00 75 1016.0
20260904175534 28 360 6.4 17.7 0.00 0.10 0.00 74 1016.0
20260904175434 28 360 6.4 17.7 0.00 0.10 0.00 74 1016.1
20260904175334 28 360 8.0 17.7 0.00 0.10 0.00 74 1016.1
20260904175234 28 360 11.3 17.7 0.00 0.10 0.00 75 1016.1
20260904175135 28 360 11.3 17.7 0.00 0.10 0.00 75 1016.1
20260904175016 28 360 8.0 16.1 0.00 0.10 0.00 75 1016.1
20260904174916 28 360 6.4 16.1 0.00 0.10 0.00 75 1016.2
20260904174818 28 173 4.8 16.1 0.00 0.10 0.00 75 1016.1
20260904174717 28 360 6.4 16.1 0.00 0.10 0.00 75 1016.1
20260904174618 28 360 8.0 16.1 0.00 0.10 0.00 75 1016.1
20260904174519 28 360 8.0 16.1 0.00 0.10 0.00 75 1016.2
20260904174419 28 360 8.0 19.3 0.00 0.10 0.00 75 1016.2
20260904174344 28 360 8.0 19.3 0.00 0.10 0.00 75 1016.3
20260904174223 28 360 8.0 19.3 0.00 0.10 0.00 75 1016.3
20260904174124 28 360 9.7 19.3 0.00 0.10 0.00 75 1016.3
20260904174025 28 360 9.7 19.3 0.00 0.10 0.00 75 1016.3
20260904173925 28 360 9.7 19.3 0.00 0.10 0.00 75 1016.3
20260904173825 28 360 11.3 19.3 0.00 0.10 0.00 76 1016.2
20260904173746 28 360 11.3 19.3 0.00 0.10 0.00 76 1016.2
20260904173629 28 360 11.3 19.3 0.00 0.10 0.00 76 1016.2
20260904173529 28 360 9.7 14.5 0.00 0.10 0.00 76 1016.2
20260904173428 28 360 8.0 14.5 0.00 0.10 0.00 76 1016.2
20260904173349 28 360 8.0 16.1 0.00 0.10 0.00 76 1016.2
20260904173228 28 360 6.4 16.1 0.00 0.10 0.00 76 1016.2
20260904173129 28 360 8.0 16.1 0.00 0.10 0.00 76 1016.2
20260904173029 28 360 8.0 16.1 0.00 0.10 0.00 76 1016.3
20260904172929 28 360 8.0 17.7 0.00 0.10 0.00 76 1016.4
20260904172835 28 139 8.0 17.7 0.00 0.10 0.00 76 1016.3
20260904172754 28 194 8.0 20.9 0.00 0.10 0.00 76 1016.3
20260904172634 28 360 6.4 20.9 0.00 0.10 0.00 76 1016.4
20260904172555 28 360 6.4 24.1 0.00 0.10 0.00 76 1016.4
20260904172434 28 360 8.0 24.1 0.00 0.10 0.00 77 1016.3
20260904172356 28 360 8.0 24.1 0.00 0.10 0.00 77 1016.4
20260904172234 28 360 9.7 24.1 0.00 0.10 0.00 77 1016.4
20260904172134 28 360 11.3 24.1 0.00 0.10 0.00 77 1016.4
20260904172019 28 360 14.5 24.1 0.00 0.10 0.00 76 1016.4
20260904171939 28 360 16.1 24.1 0.00 0.10 0.00 76 1016.4
20260904171839 28 360 16.1 24.1 0.00 0.10 0.00 77 1016.3
20260904171720 28 360 16.1 24.1 0.00 0.10 0.00 77 1016.4
20260904171621 28 360 12.9 22.5 0.00 0.10 0.00 77 1016.4
20260904171522 28 360 9.7 22.5 0.00 0.10 0.00 77 1016.4
20260904171442 28 360 9.7 22.5 0.00 0.10 0.00 78 1016.3
20260904171321 28 360 9.7 22.5 0.00 0.10 0.00 77 1016.3
20260904171226 28 360 9.7 22.5 0.00 0.10 0.00 77 1016.4
20260904171126 28 360 11.3 22.5 0.00 0.10 0.00 77 1016.4
20260904171027 28 360 11.3 22.5 0.00 0.10 0.00 77 1016.4
20260904170927 28 360 9.7 22.5 0.00 0.10 0.00 77 1016.5
20260904170827 28 360 6.4 17.7 0.00 0.10 0.00 78 1016.4
20260904170748 28 360 4.8 19.3 0.00 0.10 0.00 78 1016.4
20260904170627 28 360 4.8 19.3 0.00 0.10 0.00 78 1016.4
20260904170532 28 360 4.8 19.3 0.00 0.10 0.00 78 1016.4
20260904170431 28 360 4.8 19.3 0.00 0.10 0.00 78 1016.5
20260904170332 28 360 6.4 22.5 0.00 0.10 0.00 78 1016.5
20260904170234 28 360 8.0 22.5 0.00 0.10 0.00 78 1016.4
20260904170132 28 360 9.7 22.5 0.00 0.10 0.00 78 1016.5
20260904170033 28 360 11.3 22.5 0.00 0.10 0.00 78 1016.4
20260904165917 28 360 11.3 22.5 0.00 0.10 0.00 78 1016.4
20260904165819 28 360 12.9 22.5 0.00 0.10 0.00 78 1016.4
20260904165718 28 360 16.1 22.5 0.00 0.10 0.00 78 1016.4
20260904165638 28 360 12.9 22.5 0.00 0.10 0.00 78 1016.4
20260904165517 28 360 9.7 22.5 0.00 0.10 0.00 78 1016.3
20260904165418 28 360 6.4 14.5 0.00 0.10 0.00 79 1016.3
20260904165318 28 360 6.4 19.3 0.00 0.10 0.00 79 1016.3
20260904165223 28 360 6.4 19.3 0.00 0.10 0.00 78 1016.4
20260904165123 28 360 8.0 19.3 0.00 0.10 0.00 78 1016.3
20260904165022 28 360 6.4 19.3 0.00 0.10 0.00 79 1016.3
20260904164921 28 360 6.4 19.3 0.00 0.10 0.00 79 1016.4
20260904164822 28 360 6.4 19.3 0.00 0.10 0.00 79 1016.3
20260904164722 28 360 4.8 19.3 0.00 0.10 0.00 79 1016.3
20260904164622 28 360 4.8 19.3 0.00 0.10 0.00 79 1016.2
20260904164527 28 360 6.4 19.3 0.00 0.10 0.00 79 1016.2
20260904164428 28 360 9.7 19.3 0.00 0.10 0.00 80 1016.3
20260904164327 28 360 11.3 19.3 0.00 0.10 0.00 80 1016.1
20260904164228 28 360 9.7 17.7 0.00 0.10 0.00 80 1016.2
20260904164128 28 360 9.7 17.7 0.00 0.10 0.00 80 1016.1
20260904164028 28 360 9.7 17.7 0.00 0.10 0.00 80 1016.1
20260904163929 28 360 9.7 17.7 0.00 0.10 0.00 80 1016.2
20260904163849 28 360 9.7 17.7 0.00 0.10 0.00 80 1016.2
20260904163733 28 360 11.3 17.7 0.00 0.10 0.00 80 1016.1
20260904163632 28 360 11.3 17.7 0.00 0.10 0.00 80 1016.1
20260904163532 28 360 11.3 17.7 0.00 0.10 0.00 80 1016.1
20260904163433 28 360 9.7 16.1 0.00 0.10 0.00 80 1016.2
20260904163333 28 360 8.0 16.1 0.00 0.10 0.00 80 1016.1
20260904163235 28 360 6.4 16.1 0.00 0.10 0.00 80 1016.2
20260904163120 28 360 3.2 16.1 0.00 0.10 0.00 81 1016.2
20260904163040 28 360 3.2 16.1 0.00 0.10 0.00 81 1016.2
20260904162918 27 360 1.6 16.1 0.00 0.10 0.00 81 1016.2
20260904162819 27 360 3.2 16.1 0.00 0.10 0.00 81 1016.2
20260904162720 27 360 4.8 16.1 0.00 0.10 0.00 81 1016.2
20260904162641 27 360 6.4 16.1 0.00 0.10 0.00 81 1016.2
20260904162520 27 169 4.8 16.1 0.00 0.10 0.00 81 1016.2
20260904162421 27 360 3.2 9.7 0.00 0.10 0.00 82 1016.2
20260904162341 27 360 3.2 14.5 0.00 0.10 0.00 82 1016.2
20260904162224 27 360 3.2 14.5 0.00 0.10 0.00 82 1016.2
20260904162144 27 360 3.2 14.5 0.00 0.10 0.00 82 1016.2
20260904162024 27 360 4.8 19.3 0.00 0.10 0.00 82 1016.2
20260904161924 27 360 6.4 19.3 0.00 0.10 0.00 82 1016.2
20260904161825 27 360 6.4 19.3 0.00 0.10 0.00 82 1016.2
20260904161745 27 360 4.8 19.3 0.00 0.10 0.00 82 1016.1
20260904161625 27 360 4.8 19.3 0.00 0.10 0.00 82 1016.2
20260904161530 27 360 6.4 19.3 0.00 0.10 0.00 82 1016.1
20260904161430 27 360 8.0 19.3 0.00 0.10 0.00 82 1016.1
20260904161351 27 360 8.0 19.3 0.00 0.10 0.00 82 1016.1
20260904161230 27 360 8.0 19.3 0.00 0.10 0.00 82 1016.1
20260904161131 27 360 6.4 19.3 0.00 0.10 0.00 82 1016.1
20260904161032 27 360 4.8 17.7 0.00 0.10 0.00 83 1016.1
20260904160933 27 360 1.6 14.5 0.00 0.10 0.00 83 1016.1
20260904160854 27 360 3.2 14.5 0.00 0.10 0.00 83 1016.1
20260904160757 27 222 3.2 14.5 0.00 0.10 0.00 83 1016.1
20260904160617 27 360 4.8 14.5 0.00 0.10 0.00 84 1016.1
20260904160518 27 360 4.8 14.5 0.00 0.10 0.00 84 1016.1
20260904160418 27 360 4.8 14.5 0.00 0.10 0.00 84 1016.1
20260904160318 27 360 3.2 14.5 0.00 0.10 0.00 83 1016.1
20260904160219 27 360 4.8 14.5 0.00 0.10 0.00 83 1016.1
20260904160119 27 360 6.4 14.5 0.00 0.10 0.00 83 1016.1
20260904160023 27 360 8.0 14.5 0.00 0.10 0.00 83 1016.0
20260904155924 27 360 8.0 14.5 0.00 0.10 0.00 83 1016.1
20260904155826 27 360 8.0 12.9 0.00 0.10 0.00 83 1016.1
20260904155725 27 360 8.0 12.9 0.00 0.10 0.00 83 1016.1
20260904155628 27 360 6.4 9.7 0.00 0.10 0.00 83 1016.2
20260904155528 27 360 4.8 9.7 0.00 0.10 0.00 83 1016.1
20260904155449 27 360 4.8 9.7 0.00 0.10 0.00 83 1016.2
20260904155333 27 360 4.8 9.7 0.00 0.10 0.00 83 1016.1
20260904155233 27 360 3.2 12.9 0.00 0.10 0.00 83 1016.1
20260904155133 27 360 4.8 12.9 0.00 0.10 0.00 84 1016.1
20260904155034 27 360 3.2 12.9 0.00 0.10 0.00 84 1016.0
20260904154954 27 360 3.2 12.9 0.00 0.10 0.00 84 1016.1
20260904154834 27 360 3.2 12.9 0.00 0.10 0.00 84 1016.1
20260904154718 27 360 1.6 16.1 0.00 0.10 0.00 84 1016.0
20260904154617 27 360 3.2 16.1 0.00 0.10 0.00 84 1016.0
20260904154517 27 360 4.8 16.1 0.00 0.10 0.00 84 1016.0
20260904154417 27 360 4.8 16.1 0.00 0.10 0.00 84 1016.0
20260904154317 27 360 4.8 16.1 0.00 0.10 0.00 84 1016.0
20260904154219 27 360 4.8 16.1 0.00 0.10 0.00 84 1016.1
20260904154118 27 360 3.2 16.1 0.00 0.10 0.00 84 1016.1
20260904154019 27 360 4.8 16.1 0.00 0.10 0.00 84 1016.1
20260904153923 27 360 6.4 16.1 0.00 0.10 0.00 84 1016.0
20260904153824 27 360 6.4 16.1 0.00 0.10 0.00 84 1016.0
20260904153725 27 360 6.4 16.1 0.00 0.10 0.00 84 1016.0
20260904153625 27 360 4.8 16.1 0.00 0.10 0.00 84 1015.9
20260904153526 27 360 4.8 12.9 0.00 0.10 0.00 84 1015.9
20260904153427 27 360 6.4 12.9 0.00 0.10 0.00 84 1015.9
20260904153332 27 360 4.8 17.7 0.00 0.10 0.00 84 1016.0
20260904153232 27 360 4.8 17.7 0.00 0.10 0.00 84 1015.9
20260904153133 27 360 4.8 17.7 0.00 0.10 0.00 84 1016.0
20260904153034 27 360 4.8 17.7 0.00 0.10 0.00 84 1015.9
20260904152935 27 360 4.8 17.7 0.00 0.10 0.00 84 1016.0
20260904152817 27 360 4.8 17.7 0.00 0.10 0.00 84 1016.0
20260904152720 27 360 6.4 17.7 0.00 0.10 0.00 84 1015.9
20260904152620 27 360 8.0 17.7 0.00 0.10 0.00 84 1015.9
20260904152521 27 360 9.7 17.7 0.00 0.10 0.00 84 1016.0
20260904152442 27 360 9.7 17.7 0.00 0.10 0.00 84 1015.9
20260904152322 27 360 8.0 17.7 0.00 0.10 0.00 84 1015.9
20260904152222 27 360 6.4 17.7 0.00 0.10 0.00 84 1015.8
20260904152122 27 360 8.0 17.7 0.00 0.10 0.00 84 1015.9
20260904152026 27 360 8.0 16.1 0.00 0.10 0.00 85 1015.9
20260904151947 27 360 8.0 16.1 0.00 0.10 0.00 85 1015.9
20260904151827 27 360 6.4 16.1 0.00 0.10 0.00 85 1015.9
20260904151727 27 360 6.4 16.1 0.00 0.10 0.00 85 1015.8
20260904151648 27 360 6.4 16.1 0.00 0.10 0.00 85 1015.9
20260904151527 26 360 6.4 16.1 0.00 0.10 0.00 85 1015.8
20260904151428 26 360 6.4 16.1 0.00 0.10 0.00 85 1015.9
20260904151329 26 360 4.8 16.1 0.00 0.10 0.00 85 1015.9
20260904151234 26 360 4.8 16.1 0.00 0.10 0.00 85 1015.8
20260904151154 26 360 4.8 16.1 0.00 0.10 0.00 85 1015.8
20260904151054 26 360 4.8 19.3 0.00 0.10 0.00 85 1015.8
20260904150933 26 360 4.8 19.3 0.00 0.10 0.00 85 1015.9
20260904150833 26 360 4.8 19.3 0.00 0.10 0.00 85 1015.9
20260904150735 26 360 4.8 19.3 0.00 0.10 0.00 85 1016.0
20260904150634 26 360 4.8 19.3 0.00 0.10 0.00 85 1016.0
20260904150519 26 360 6.4 19.3 0.00 0.10 0.00 85 1015.9
20260904150419 26 360 8.0 19.3 0.00 0.10 0.00 85 1016.0
20260904150320 26 360 8.0 19.3 0.00 0.10 0.00 85 1016.0
20260904150219 26 360 9.7 19.3 0.00 0.10 0.00 85 1016.0
20260904150120 26 360 8.0 19.3 0.00 0.10 0.00 85 1016.0
20260904150021 26 360 6.4 19.3 0.00 0.10 0.00 85 1016.0
20260904145922 26 360 6.4 19.3 0.00 0.10 0.00 85 1016.1
20260904145828 26 360 8.0 19.3 0.00 0.10 0.00 85 1016.0
20260904145727 26 360 8.0 19.3 0.00 0.10 0.00 85 1016.1
20260904145627 27 360 9.7 19.3 0.00 0.10 0.00 85 1016.0
20260904145528 27 360 8.0 17.7 0.00 0.10 0.00 85 1016.1
20260904145448 27 360 6.4 17.7 0.00 0.10 0.00 86 1016.1
20260904145328 27 360 6.4 17.7 0.00 0.10 0.00 86 1016.0
20260904145228 26 360 4.8 17.7 0.00 0.10 0.00 85 1016.0
20260904145133 26 360 4.8 17.7 0.00 0.10 0.00 85 1016.1
20260904145034 27 360 4.8 16.1 0.00 0.10 0.00 85 1016.2
20260904144935 27 360 4.8 14.5 0.00 0.10 0.00 85 1016.1
20260904144816 27 360 4.8 14.5 0.00 0.10 0.00 85 1016.1
20260904144716 27 360 4.8 14.5 0.00 0.10 0.00 85 1016.2
20260904144638 27 360 4.8 14.5 0.00 0.10 0.00 85 1016.1
20260904144539 27 360 6.4 14.5 0.00 0.10 0.00 85 1016.2
20260904144423 27 360 6.4 14.5 0.00 0.10 0.00 85 1016.2
20260904144344 27 360 4.8 14.5 0.00 0.10 0.00 85 1016.2
20260904144224 27 360 3.2 12.9 0.00 0.10 0.00 85 1016.2
20260904144144 27 360 3.2 12.9 0.00 0.10 0.00 85 1016.2
20260904144023 27 226 3.2 12.9 0.00 0.10 0.00 85 1016.2
20260904143923 26 360 4.8 12.9 0.00 0.10 0.00 85 1016.2
20260904143823 26 360 4.8 12.9 0.00 0.10 0.00 85 1016.2
20260904143724 26 360 4.8 12.9 0.00 0.10 0.00 85 1016.2
20260904143629 26 360 4.8 12.9 0.00 0.10 0.00 85 1016.2
20260904143529 26 360 4.8 12.9 0.00 0.10 0.00 85 1016.2
20260904143430 26 360 4.8 9.7 0.00 0.10 0.00 85 1016.2
20260904143330 26 360 4.8 12.9 0.00 0.10 0.00 85 1016.2
20260904143231 26 360 4.8 12.9 0.00 0.10 0.00 85 1016.2
20260904143131 26 360 4.8 12.9 0.00 0.10 0.00 85 1016.2
20260904143052 26 360 3.2 12.9 0.00 0.10 0.00 85 1016.2
20260904142935 26 360 3.2 12.9 0.00 0.10 0.00 85 1016.1
20260904142834 26 360 3.2 12.9 0.00 0.10 0.00 85 1016.2
20260904142733 26 360 4.8 12.9 0.00 0.10 0.00 85 1016.2
20260904142633 26 360 4.8 12.9 0.00 0.10 0.00 85 1016.2
20260904142534 26 360 3.2 12.9 0.00 0.10 0.00 85 1016.2
20260904142434 26 360 3.2 8.0 0.00 0.10 0.00 85 1016.1
20260904142334 26 360 3.2 8.0 0.00 0.10 0.00 85 1016.1
20260904142219 26 360 3.2 8.0 0.00 0.10 0.00 86 1016.2
20260904142119 26 360 3.2 8.0 0.00 0.10 0.00 86 1016.2
20260904142019 26 360 4.8 8.0 0.00 0.10 0.00 86 1016.1
20260904141940 26 360 3.2 9.7 0.00 0.10 0.00 86 1016.1
20260904141819 26 360 4.8 9.7 0.00 0.10 0.00 86 1016.1
20260904141719 26 360 3.2 9.7 0.00 0.10 0.00 86 1016.1
20260904141620 26 360 3.2 9.7 0.00 0.10 0.00 86 1016.1
20260904141525 26 360 3.2 9.7 0.00 0.10 0.00 86 1016.0
20260904141446 26 360 4.8 9.7 0.00 0.10 0.00 86 1016.1
20260904141326 26 360 4.8 9.7 0.00 0.10 0.00 86 1016.1
20260904141225 26 360 4.8 9.7 0.00 0.10 0.00 86 1016.1
20260904141125 26 360 4.8 9.7 0.00 0.10 0.00 86 1016.1
20260904141026 26 360 3.2 8.0 0.00 0.10 0.00 86 1016.0
20260904140926 26 360 3.2 8.0 0.00 0.10 0.00 86 1016.1
20260904140847 26 360 3.2 8.0 0.00 0.10 0.00 86 1016.1
20260904140747 26 360 3.2 9.7 0.00 0.10 0.00 87 1016.0
20260904140631 26 360 3.2 14.5 0.00 0.10 0.00 86 1016.1
20260904140530 26 360 4.8 14.5 0.00 0.10 0.00 87 1016.0
20260904140431 26 360 3.2 14.5 0.00 0.10 0.00 87 1016.0
20260904140352 26 360 3.2 14.5 0.00 0.10 0.00 87 1016.0
20260904140230 26 360 3.2 14.5 0.00 0.10 0.00 87 1016.0
20260904140132 26 360 4.8 14.5 0.00 0.10 0.00 87 1015.9
20260904140032 26 360 6.4 14.5 0.00 0.10 0.00 87 1016.0
20260904135917 26 360 4.8 14.5 0.00 0.10 0.00 87 1016.0
20260904135819 26 360 4.8 14.5 0.00 0.10 0.00 87 1016.0
20260904135718 26 360 6.4 14.5 0.00 0.10 0.00 87 1015.9
20260904135619 26 360 8.0 14.5 0.00 0.10 0.00 87 1015.9
20260904135519 26 360 9.7 14.5 0.00 0.10 0.00 87 1015.9
20260904135420 26 360 8.0 14.5 0.00 0.10 0.00 87 1016.0
20260904135320 26 360 6.4 14.5 0.00 0.10 0.00 87 1016.0
20260904135225 26 360 6.4 14.5 0.00 0.10 0.00 87 1015.9
20260904135124 26 360 4.8 14.5 0.00 0.10 0.00 87 1015.9
20260904135025 26 360 6.4 14.5 0.00 0.10 0.00 87 1016.0
20260904134927 26 360 6.4 14.5 0.00 0.10 0.00 87 1015.9
20260904134828 26 360 8.0 14.5 0.00 0.10 0.00 87 1015.9
20260904134728 26 360 6.4 12.9 0.00 0.10 0.00 87 1015.9
20260904134648 26 360 4.8 12.9 0.00 0.10 0.00 87 1016.0
20260904134547 26 360 4.8 9.7 0.00 0.10 0.00 87 1015.9
20260904134448 26 360 4.8 8.0 0.00 0.10 0.00 87 1015.9
20260904134331 26 360 4.8 8.0 0.00 0.10 0.00 88 1015.9
20260904134231 26 203 4.8 6.4 0.00 0.10 0.00 88 1016.0
20260904134131 26 360 3.2 6.4 0.00 0.10 0.00 88 1016.0
20260904134032 26 360 1.6 6.4 0.00 0.10 0.00 88 1016.0
20260904133933 26 360 1.6 4.8 0.00 0.10 0.00 88 1016.0
20260904133833 26 360 0.0 4.8 0.00 0.10 0.00 88 1016.0
20260904133737 26 360 0.0 8.0 0.00 0.10 0.00 88 1016.0
20260904133617 26 360 1.6 8.0 0.00 0.10 0.00 88 1016.0
20260904133517 26 360 1.6 8.0 0.00 0.10 0.00 88 1015.9
20260904133438 26 360 1.6 8.0 0.00 0.10 0.00 88 1016.0
20260904133318 26 360 1.6 8.0 0.00 0.10 0.00 88 1015.9
20260904133217 26 360 3.2 8.0 0.00 0.10 0.00 88 1016.0
20260904133117 26 165 3.2 8.0 0.00 0.10 0.00 88 1016.0
20260904133038 26 163 3.2 8.0 0.00 0.10 0.00 88 1015.9
20260904132921 26 360 3.2 8.0 0.00 0.10 0.00 88 1015.9
20260904132823 26 360 3.2 8.0 0.00 0.10 0.00 88 1015.8
20260904132722 26 360 3.2 8.0 0.00 0.10 0.00 88 1015.8
20260904132622 26 360 4.8 8.0 0.00 0.10 0.00 88 1015.9
20260904132524 26 360 4.8 8.0 0.00 0.10 0.00 88 1015.8
20260904132425 26 360 4.8 9.7 0.00 0.10 0.00 88 1015.8
20260904132325 26 360 4.8 9.7 0.00 0.10 0.00 88 1015.8
20260904132230 26 360 3.2 9.7 0.00 0.10 0.00 88 1015.8
20260904132130 26 360 4.8 9.7 0.00 0.10 0.00 88 1015.8
20260904132031 26 360 4.8 9.7 0.00 0.10 0.00 88 1015.8
20260904131930 26 360 4.8 9.7 0.00 0.10 0.00 88 1015.8
20260904131851 26 360 4.8 9.7 0.00 0.10 0.00 88 1015.8
20260904131729 26 360 4.8 9.7 0.00 0.10 0.00 88 1015.7
20260904131630 26 360 6.4 9.7 0.00 0.10 0.00 88 1015.8
20260904131531 26 360 6.4 9.7 0.00 0.10 0.00 88 1015.8
20260904131417 26 360 6.4 9.7 0.00 0.10 0.00 88 1015.8
20260904131338 26 360 6.4 9.7 0.00 0.10 0.00 88 1015.8
20260904131217 26 360 6.4 9.7 0.00 0.10 0.00 88 1015.8
20260904131138 26 360 4.8 8.0 0.00 0.10 0.00 88 1015.8
20260904131018 26 360 4.8 8.0 0.00 0.10 0.00 88 1015.8
20260904130918 26 360 4.8 8.0 0.00 0.10 0.00 88 1015.8
20260904130820 26 360 4.8 8.0 0.00 0.10 0.00 88 1015.8
20260904130725 26 168 4.8 12.9 0.00 0.10 0.00 88 1015.8
20260904130626 26 360 4.8 14.5 0.00 0.10 0.00 88 1015.8
20260904130526 26 360 4.8 14.5 0.00 0.10 0.00 88 1015.8
20260904130426 26 360 4.8 16.1 0.00 0.10 0.00 88 1015.8
20260904130327 26 360 4.8 16.1 0.00 0.10 0.00 88 1015.8
20260904130247 26 360 4.8 16.1 0.00 0.10 0.00 88 1015.8
20260904130127 26 360 4.8 16.1 0.00 0.10 0.00 88 1015.8
20260904130032 26 360 6.4 16.1 0.00 0.10 0.00 89 1015.8
20260904125932 26 360 9.7 16.1 0.00 0.10 0.00 88 1015.8
20260904125834 26 360 9.7 16.1 0.00 0.10 0.00 88 1015.7
20260904125733 26 360 11.3 16.1 0.00 0.10 0.00 88 1015.8
20260904125634 26 360 9.7 16.1 0.00 0.10 0.00 88 1015.7
20260904125554 26 360 9.7 16.1 0.00 0.10 0.00 88 1015.6
20260904125418 26 360 8.0 16.1 0.00 0.10 0.00 88 1015.7
20260904125319 26 173 8.0 12.9 0.00 0.10 0.00 88 1015.6
20260904125220 26 360 8.0 12.9 0.00 0.10 0.00 88 1015.6
20260904125120 26 360 6.4 12.9 0.00 0.10 0.00 89 1015.6
20260904125021 26 360 6.4 12.9 0.00 0.10 0.00 89 1015.6
20260904124941 26 360 6.4 12.9 0.00 0.10 0.00 89 1015.7
20260904124820 26 360 6.4 12.9 0.00 0.10 0.00 89 1015.6
20260904124725 26 360 6.4 12.9 0.00 0.10 0.00 89 1015.6
20260904124626 26 360 6.4 12.9 0.00 0.10 0.00 89 1015.6
20260904124525 26 172 6.4 12.9 0.00 0.10 0.00 89 1015.6
20260904124426 26 360 8.0 12.9 0.00 0.10 0.00 89 1015.5
20260904124326 26 360 9.7 12.9 0.00 0.10 0.00 89 1015.5
20260904124247 26 360 8.0 14.5 0.00 0.10 0.00 89 1015.6
20260904124127 26 360 6.4 14.5 0.00 0.10 0.00 89 1015.5
20260904124028 26 360 6.4 14.5 0.00 0.10 0.00 89 1015.5
20260904123952 26 360 6.4 14.5 0.00 0.10 0.00 89 1015.5
20260904123852 26 360 6.4 16.1 0.00 0.10 0.00 89 1015.5
20260904123751 26 360 8.0 16.1 0.00 0.10 0.00 89 1015.5
20260904123651 26 360 8.0 16.1 0.00 0.10 0.00 89 1015.4
20260904123550 26 360 8.0 16.1 0.00 0.10 0.00 89 1015.4
20260904123429 26 360 8.0 16.1 0.00 0.10 0.00 89 1015.4
20260904123350 26 360 8.0 16.1 0.00 0.10 0.00 89 1015.4
20260904123229 26 360 9.7 16.1 0.00 0.10 0.00 89 1015.4
20260904123130 26 360 9.7 16.1 0.00 0.10 0.00 89 1015.4
20260904123050 26 360 9.7 16.1 0.00 0.10 0.00 89 1015.3
20260904122934 26 360 8.0 12.9 0.00 0.10 0.00 89 1015.4
20260904122835 26 360 6.4 12.9 0.00 0.10 0.00 89 1015.4
20260904122735 26 360 6.4 12.9 0.00 0.10 0.00 89 1015.3
20260904122616 26 360 6.4 12.9 0.00 0.10 0.00 89 1015.3
20260904122518 26 360 6.4 14.5 0.00 0.10 0.00 89 1015.3
20260904122438 26 360 6.4 14.5 0.00 0.10 0.00 89 1015.4
20260904122338 26 360 6.4 19.3 0.00 0.10 0.00 89 1015.3
20260904122221 26 360 6.4 19.3 0.00 0.10 0.00 89 1015.3
20260904122121 26 360 8.0 19.3 0.00 0.10 0.00 89 1015.3
20260904122042 26 360 8.0 19.3 0.00 0.10 0.00 89 1015.3
20260904121916 26 360 8.0 19.3 0.00 0.10 0.00 89 1015.2
20260904121836 26 360 8.0 19.3 0.00 0.10 0.00 89 1015.2
20260904121735 26 360 11.3 19.3 0.00 0.10 0.00 89 1015.2
20260904121634 26 360 11.3 19.3 0.00 0.10 0.00 89 1015.2
20260904121519 26 360 8.0 17.7 0.00 0.10 0.00 89 1015.2
20260904121420 26 360 6.4 14.5 0.00 0.10 0.00 89 1015.1
20260904121341 26 360 6.4 17.7 0.00 0.10 0.00 89 1015.1
20260904121220 26 360 9.7 17.7 0.00 0.10 0.00 89 1015.1
20260904121120 26 360 9.7 17.7 0.00 0.10 0.00 89 1015.0
20260904121040 26 360 9.7 17.7 0.00 0.10 0.00 89 1015.0
20260904120939 26 169 9.7 17.7 0.00 0.10 0.00 89 1015.0
20260904120818 26 360 8.0 17.7 0.00 0.10 0.00 89 1015.0
20260904120722 26 360 11.3 17.7 0.00 0.10 0.00 89 1015.0
20260904120622 26 360 11.3 17.7 0.00 0.10 0.00 89 1014.9
20260904120523 26 360 11.3 17.7 0.00 0.10 0.00 89 1014.9
20260904120423 26 360 9.7 16.1 0.00 0.10 0.00 89 1014.8
20260904120345 26 360 11.3 16.1 0.00 0.10 0.00 89 1014.8
20260904120224 26 178 11.3 16.1 0.00 0.10 0.00 89 1014.8
20260904120124 26 360 9.7 17.7 0.00 0.10 0.00 89 1014.8
20260904120024 26 360 8.0 17.7 0.00 0.10 0.00 89 1014.7
20260904115929 26 360 8.0 17.7 0.00 0.10 0.00 89 1014.8
20260904115830 26 360 9.7 19.3 0.00 0.10 0.00 89 1014.8
20260904115729 26 360 9.7 19.3 0.00 0.10 0.00 89 1014.7
20260904115628 26 360 9.7 19.3 0.00 0.10 0.00 89 1014.8
20260904115529 26 360 11.3 19.3 0.00 0.10 0.00 89 1014.7
20260904115430 26 360 11.3 19.3 0.00 0.10 0.00 89 1014.8
20260904115350 26 360 11.3 19.3 0.00 0.10 0.00 89 1014.8
20260904115234 26 360 11.3 19.3 0.00 0.10 0.00 89 1014.7
20260904115134 26 360 12.9 19.3 0.00 0.10 0.00 89 1014.8
20260904115035 26 360 11.3 19.3 0.00 0.10 0.00 89 1014.7
20260904114936 26 360 11.3 17.7 0.00 0.10 0.00 89 1014.8
20260904114857 26 360 11.3 22.5 0.00 0.10 0.00 89 1014.8
20260904114756 26 360 12.9 22.5 0.00 0.10 0.00 89 1014.7
20260904114655 26 360 12.9 22.5 0.00 0.10 0.00 89 1014.8
20260904114535 26 360 11.3 22.5 0.00 0.10 0.00 89 1014.8
20260904114419 26 360 9.7 22.5 0.00 0.10 0.00 89 1014.7
20260904114320 26 360 11.3 22.5 0.00 0.10 0.00 89 1014.8
20260904114221 26 360 14.5 22.5 0.00 0.10 0.00 89 1014.8
20260904114121 26 360 14.5 22.5 0.00 0.10 0.00 89 1014.8
20260904114022 26 360 14.5 22.5 0.00 0.10 0.00 89 1014.8
20260904113942 26 360 12.9 22.5 0.00 0.10 0.00 89 1014.7
20260904113842 26 360 11.3 22.5 0.00 0.10 0.00 89 1014.7
20260904113725 26 360 9.7 22.5 0.00 0.10 0.00 89 1014.6
20260904113627 26 360 9.7 22.5 0.00 0.10 0.00 89 1014.7
20260904113526 26 360 9.7 22.5 0.00 0.10 0.00 89 1014.7
20260904113447 26 155 11.3 22.5 0.00 0.10 0.00 89 1014.6
20260904113326 26 360 11.3 22.5 0.00 0.10 0.00 89 1014.6
20260904113227 26 360 11.3 19.3 0.00 0.10 0.00 89 1014.6
20260904113129 26 161 11.3 19.3 0.00 0.10 0.00 89 1014.6
20260904113049 26 360 11.3 19.3 0.00 0.10 0.00 89 1014.6
20260904112953 26 360 12.9 20.9 0.00 0.10 0.00 89 1014.5
20260904112854 26 360 12.9 20.9 0.00 0.10 0.00 89 1014.5
20260904112732 26 360 12.9 20.9 0.00 0.10 0.00 89 1014.6
20260904112652 26 360 12.9 20.9 0.00 0.10 0.00 89 1014.6
20260904112532 26 360 9.7 20.9 0.00 0.10 0.00 89 1014.6
20260904112432 26 360 8.0 20.9 0.00 0.10 0.00 89 1014.5
20260904112333 26 360 11.3 20.9 0.00 0.10 0.00 89 1014.6
20260904112217 26 360 12.9 20.9 0.00 0.10 0.00 89 1014.6
20260904112119 26 360 11.3 20.9 0.00 0.10 0.00 89 1014.5
20260904112020 26 360 8.0 16.1 0.00 0.10 0.00 89 1014.6
20260904111921 26 161 8.0 16.1 0.00 0.10 0.00 89 1014.6
20260904111842 26 360 8.0 17.7 0.00 0.10 0.00 89 1014.5
20260904111722 26 360 8.0 19.3 0.00 0.10 0.00 89 1014.5
20260904111623 26 360 8.0 19.3 0.00 0.10 0.00 89 1014.5
20260904111528 26 360 8.0 19.3 0.00 0.10 0.00 89 1014.5
20260904111429 26 360 8.0 19.3 0.00 0.10 0.00 89 1014.4
20260904111329 26 360 8.0 19.3 0.00 0.10 0.00 89 1014.5
20260904111230 26 360 9.7 19.3 0.00 0.10 0.00 89 1014.5
20260904111130 26 360 11.3 19.3 0.00 0.10 0.00 89 1014.6
20260904111031 26 360 12.9 19.3 0.00 0.10 0.00 89 1014.5
20260904110952 26 360 12.9 19.3 0.00 0.10 0.00 89 1014.5
20260904110834 25 360 11.3 17.7 0.00 0.10 0.00 89 1014.4
20260904110735 25 360 11.3 17.7 0.00 0.10 0.00 89 1014.5
20260904110655 25 360 9.7 17.7 0.00 0.10 0.00 89 1014.5
20260904110535 25 360 9.7 17.7 0.00 0.10 0.00 89 1014.5
20260904110456 25 360 9.7 17.7 0.00 0.10 0.00 89 1014.6
20260904110356 25 360 9.7 17.7 0.00 0.10 0.00 89 1014.5
20260904110235 25 360 9.7 17.7 0.00 0.10 0.00 89 1014.5
20260904110155 25 360 8.0 17.7 0.00 0.10 0.00 89 1014.5
20260904110019 25 360 9.7 17.7 0.00 0.10 0.00 89 1014.5
20260904105919 25 360 9.7 17.7 0.00 0.10 0.00 89 1014.4
20260904105821 25 360 9.7 16.1 0.00 0.10 0.00 89 1014.5
20260904105720 25 360 9.7 16.1 0.00 0.10 0.00 89 1014.4
20260904105640 25 360 9.7 16.1 0.00 0.10 0.00 89 1014.4
20260904105520 25 360 9.7 16.1 0.00 0.10 0.00 89 1014.4
20260904105420 25 360 8.0 12.9 0.00 0.10 0.00 89 1014.4
20260904105342 25 360 8.0 12.9 0.00 0.10 0.00 89 1014.4
20260904105226 25 360 8.0 12.9 0.00 0.10 0.00 89 1014.4
20260904105127 25 360 8.0 12.9 0.00 0.10 0.00 89 1014.4
20260904105026 25 360 8.0 14.5 0.00 0.10 0.00 89 1014.4
20260904104925 25 360 8.0 14.5 0.00 0.10 0.00 89 1014.4
20260904104826 25 360 6.4 14.5 0.00 0.10 0.00 89 1014.3
20260904104727 25 360 6.4 14.5 0.00 0.10 0.00 89 1014.3
20260904104627 25 360 6.4 14.5 0.00 0.10 0.00 89 1014.2
20260904104528 25 360 6.4 14.5 0.00 0.10 0.00 89 1014.3
20260904104431 25 360 8.0 14.5 0.00 0.10 0.00 89 1014.3
20260904104333 25 360 8.0 14.5 0.00 0.10 0.00 89 1014.2
20260904104233 25 360 8.0 14.5 0.00 0.10 0.00 89 1014.2
20260904104154 25 360 6.4 14.5 0.00 0.10 0.00 89 1014.1
20260904104032 25 360 6.4 14.5 0.00 0.10 0.00 89 1014.2
20260904103933 25 360 6.4 14.5 0.00 0.10 0.00 89 1014.2
20260904103832 25 360 8.0 14.5 0.00 0.10 0.00 89 1014.2
20260904103716 25 360 8.0 14.5 0.00 0.10 0.00 89 1014.2
20260904103617 25 360 8.0 14.5 0.00 0.10 0.00 89 1014.2
20260904103518 25 360 8.0 17.7 0.00 0.10 0.00 89 1014.1
20260904103419 25 360 8.0 17.7 0.00 0.10 0.00 89 1014.2
20260904103319 25 360 8.0 17.7 0.00 0.10 0.00 89 1014.2
20260904103220 25 360 8.0 17.7 0.00 0.10 0.00 89 1014.1
20260904103120 25 360 8.0 17.7 0.00 0.10 0.00 89 1014.1
20260904103025 25 360 8.0 17.7 0.00 0.10 0.00 89 1014.1
20260904102926 25 360 8.0 17.7 0.00 0.10 0.00 89 1014.1
20260904102828 25 360 9.7 17.7 0.00 0.10 0.00 89 1014.1
20260904102727 25 360 8.0 17.7 0.00 0.10 0.00 89 1014.1
20260904102627 25 360 9.7 17.7 0.00 0.10 0.00 89 1014.1
20260904102527 25 360 8.0 14.5 0.00 0.10 0.00 89 1014.1
20260904102432 25 360 8.0 12.9 0.00 0.10 0.00 89 1014.1
20260904102334 25 360 8.0 12.9 0.00 0.10 0.00 89 1014.0
20260904102254 25 360 6.4 12.9 0.00 0.10 0.00 89 1014.1
20260904102134 25 360 6.4 12.9 0.00 0.10 0.00 89 1014.1
20260904102054 25 360 6.4 11.3 0.00 0.10 0.00 89 1014.1
20260904101934 25 360 6.4 11.3 0.00 0.10 0.00 89 1014.1
20260904101834 25 360 6.4 9.7 0.00 0.10 0.00 89 1014.1
20260904101720 25 360 6.4 9.7 0.00 0.10 0.00 89 1014.1
20260904101640 25 360 6.4 9.7 0.00 0.10 0.00 89 1014.1
20260904101520 25 360 6.4 9.7 0.00 0.10 0.00 89 1014.1
20260904101421 25 360 6.4 9.7 0.00 0.10 0.00 89 1014.1
20260904101342 25 360 8.0 9.7 0.00 0.10 0.00 89 1014.1
20260904101222 25 360 6.4 9.7 0.00 0.10 0.00 89 1014.1
20260904101121 25 360 6.4 9.7 0.00 0.10 0.00 90 1014.1
20260904101022 25 360 6.4 9.7 0.00 0.10 0.00 89 1014.1
20260904100946 25 360 6.4 9.7 0.00 0.10 0.00 89 1014.1
20260904100826 25 360 6.4 9.7 0.00 0.10 0.00 89 1014.1
20260904100727 25 360 6.4 9.7 0.00 0.10 0.00 89 1014.1
20260904100628 25 360 6.4 14.5 0.00 0.10 0.00 89 1014.1
20260904100529 25 360 6.4 16.1 0.00 0.10 0.00 89 1014.1
20260904100428 25 360 6.4 16.1 0.00 0.10 0.00 89 1014.2
20260904100328 25 360 6.4 16.1 0.00 0.10 0.00 89 1014.2
20260904100232 25 360 6.4 16.1 0.00 0.10 0.00 89 1014.2
20260904100153 25 360 6.4 16.1 0.00 0.10 0.00 89 1014.2
20260904100033 25 360 8.0 16.1 0.00 0.10 0.00 89 1014.1
20260904095953 25 360 9.7 16.1 0.00 0.10 0.00 89 1014.2
20260904095834 25 360 11.3 16.1 0.00 0.10 0.00 89 1014.1
20260904095733 25 360 9.7 16.1 0.00 0.10 0.00 89 1014.1
20260904095634 25 360 8.0 16.1 0.00 0.10 0.00 89 1014.1
20260904095519 25 360 8.0 16.1 0.00 0.10 0.00 89 1014.1
20260904095420 25 360 6.4 12.9 0.00 0.10 0.00 89 1014.1
20260904095320 25 360 8.0 12.9 0.00 0.10 0.00 89 1014.0
20260904095221 25 360 8.0 12.9 0.00 0.10 0.00 89 1014.0
20260904095142 25 360 6.4 14.5 0.00 0.10 0.00 89 1014.1
20260904095021 25 360 6.4 14.5 0.00 0.10 0.00 89 1014.0
20260904094921 25 360 4.8 14.5 0.00 0.10 0.00 89 1014.1
20260904094821 25 360 4.8 14.5 0.00 0.10 0.00 89 1014.0
20260904094726 25 360 6.4 14.5 0.00 0.10 0.00 89 1014.1
20260904094624 25 360 6.4 14.5 0.00 0.10 0.00 89 1014.1
20260904094524 25 360 9.7 14.5 0.00 0.10 0.00 88 1014.0
20260904094425 25 360 9.7 14.5 0.00 0.10 0.00 88 1014.0
20260904094346 25 360 8.0 16.1 0.00 0.10 0.00 88 1014.1
20260904094225 25 360 6.4 16.1 0.00 0.10 0.00 88 1013.9
20260904094126 25 360 6.4 16.1 0.00 0.10 0.00 88 1014.0
20260904094030 25 360 6.4 16.1 0.00 0.10 0.00 88 1014.0
20260904093931 25 360 8.0 16.1 0.00 0.10 0.00 88 1014.0
20260904093831 25 360 8.0 17.7 0.00 0.10 0.00 88 1014.0
20260904093732 25 360 8.0 17.7 0.00 0.10 0.00 88 1014.0
20260904093633 25 360 8.0 17.7 0.00 0.10 0.00 88 1014.0
20260904093533 26 360 8.0 17.7 0.00 0.10 0.00 88 1014.1
20260904093454 26 360 8.0 17.7 0.00 0.10 0.00 88 1014.0
20260904093338 26 360 9.7 17.7 0.00 0.10 0.00 88 1014.0
20260904093218 26 360 11.3 17.7 0.00 0.10 0.00 88 1014.0
20260904093118 26 360 11.3 17.7 0.00 0.10 0.00 88 1013.9
20260904093019 26 360 9.7 17.7 0.00 0.10 0.00 87 1014.1
20260904092919 26 360 8.0 16.1 0.00 0.10 0.00 87 1014.0
20260904092840 26 360 8.0 16.1 0.00 0.10 0.00 87 1014.0
20260904092719 26 360 8.0 16.1 0.00 0.10 0.00 87 1013.9
20260904092640 26 360 8.0 16.1 0.00 0.10 0.00 87 1013.9
20260904092524 26 360 8.0 16.1 0.00 0.10 0.00 87 1013.9
20260904092445 26 360 8.0 16.1 0.00 0.10 0.00 87 1014.0
20260904092343 26 360 8.0 14.5 0.00 0.10 0.00 87 1014.0
20260904092224 26 360 6.4 9.7 0.00 0.10 0.00 87 1014.0
20260904092124 26 360 4.8 9.7 0.00 0.10 0.00 87 1013.9
20260904092025 26 360 4.8 9.7 0.00 0.10 0.00 87 1014.0
20260904091925 26 360 6.4 9.7 0.00 0.10 0.00 87 1014.0
20260904091830 26 360 6.4 9.7 0.00 0.10 0.00 86 1014.0
20260904091729 26 360 4.8 9.7 0.00 0.10 0.00 86 1014.0
20260904091630 26 360 4.8 19.3 0.00 0.10 0.00 86 1014.0
20260904091531 26 360 4.8 19.3 0.00 0.10 0.00 86 1013.9
20260904091432 26 180 4.8 19.3 0.00 0.10 0.00 86 1014.0
20260904091332 26 360 4.8 19.3 0.00 0.10 0.00 86 1013.9
20260904091232 26 360 4.8 19.3 0.00 0.10 0.00 86 1013.9
20260904091132 26 360 3.2 19.3 0.00 0.10 0.00 86 1013.9
20260904091056 26 360 3.2 19.3 0.00 0.10 0.00 86 1013.9
20260904090935 26 190 6.4 19.3 0.00 0.10 0.00 86 1014.0
20260904090856 26 360 8.0 19.3 0.00 0.10 0.00 86 1013.9
20260904090734 26 360 9.7 17.7 0.00 0.10 0.00 86 1013.8
20260904090635 26 360 8.0 17.7 0.00 0.10 0.00 86 1013.9
20260904090516 26 360 8.0 17.7 0.00 0.10 0.00 86 1013.8
20260904090417 26 360 8.0 17.7 0.00 0.10 0.00 87 1013.7
20260904090321 26 360 8.0 17.7 0.00 0.10 0.00 86 1013.8
20260904090222 26 360 6.4 12.9 0.00 0.10 0.00 86 1013.8
20260904090121 26 360 4.8 12.9 0.00 0.10 0.00 86 1013.8
20260904090023 26 360 4.8 12.9 0.00 0.10 0.00 86 1013.9
20260904085924 26 360 3.2 12.9 0.00 0.10 0.00 86 1013.9
20260904085826 26 360 4.8 12.9 0.00 0.10 0.00 86 1013.9
20260904085731 26 360 3.2 9.7 0.00 0.10 0.00 86 1013.9
20260904085631 26 360 4.8 9.7 0.00 0.10 0.00 86 1013.9
20260904085533 26 360 4.8 9.7 0.00 0.10 0.00 86 1014.0
20260904085433 26 188 4.8 16.1 0.00 0.10 0.00 86 1014.0
20260904085334 26 360 4.8 16.1 0.00 0.10 0.00 86 1014.0
20260904085255 26 360 4.8 16.1 0.00 0.10 0.00 86 1014.0
20260904085153 26 360 4.8 16.1 0.00 0.10 0.00 86 1014.0
20260904085017 26 360 3.2 16.1 0.00 0.10 0.00 86 1014.0
20260904084919 26 360 1.6 16.1 0.00 0.10 0.00 86 1014.1
20260904084820 26 360 4.8 16.1 0.00 0.10 0.00 86 1014.0
20260904084740 26 360 4.8 16.1 0.00 0.10 0.00 86 1014.1
20260904084620 26 360 8.0 16.1 0.00 0.10 0.00 86 1014.0
20260904084521 26 360 6.4 16.1 0.00 0.10 0.00 86 1014.0
20260904084421 26 360 6.4 16.1 0.00 0.10 0.00 86 1014.1
20260904084327 26 360 4.8 12.9 0.00 0.10 0.00 86 1014.0
20260904084228 26 360 4.8 12.9 0.00 0.10 0.00 86 1014.0
20260904084128 26 360 6.4 12.9 0.00 0.10 0.00 86 1014.0
20260904084028 26 360 6.4 14.5 0.00 0.10 0.00 86 1014.0
20260904083929 26 360 6.4 14.5 0.00 0.10 0.00 86 1014.0
20260904083830 26 360 6.4 14.5 0.00 0.10 0.00 86 1014.0
20260904083731 26 360 8.0 14.5 0.00 0.10 0.00 86 1014.0
20260904083616 26 360 8.0 14.5 0.00 0.10 0.00 86 1014.1
20260904083517 26 360 8.0 22.5 0.00 0.10 0.00 86 1014.1
20260904083419 26 360 8.0 22.5 0.00 0.10 0.00 86 1014.0
20260904083339 26 169 8.0 22.5 0.00 0.10 0.00 86 1014.0
20260904083239 26 360 9.7 22.5 0.00 0.10 0.00 86 1014.0
20260904083117 26 360 9.7 22.5 0.00 0.10 0.00 86 1014.1
20260904083018 26 360 8.0 22.5 0.00 0.10 0.00 86 1014.1
20260904082922 26 360 8.0 22.5 0.00 0.10 0.00 86 1014.1
20260904082825 26 360 9.7 22.5 0.00 0.10 0.00 86 1014.0
20260904082724 26 360 11.3 22.5 0.00 0.10 0.00 86 1014.1
20260904082624 26 360 9.7 22.5 0.00 0.10 0.00 86 1014.0
20260904082524 26 360 11.3 20.9 0.00 0.10 0.00 86 1014.0
20260904082424 26 360 9.7 19.3 0.00 0.10 0.00 86 1014.0
20260904082325 26 360 9.7 19.3 0.00 0.10 0.00 85 1014.0
20260904082228 26 360 8.0 19.3 0.00 0.10 0.00 85 1014.0
20260904082129 26 178 4.8 19.3 0.00 0.10 0.00 85 1013.9
20260904082030 26 360 6.4 19.3 0.00 0.10 0.00 85 1014.0
20260904081950 26 360 8.0 19.3 0.00 0.10 0.00 85 1014.0
20260904081830 26 360 11.3 25.7 0.00 0.10 0.00 85 1014.0
20260904081731 26 180 8.0 25.7 0.00 0.10 0.00 85 1013.9
20260904081632 26 360 8.0 25.7 0.00 0.10 0.00 85 1013.9
20260904081516 26 360 8.0 25.7 0.00 0.10 0.00 85 1013.9
20260904081437 26 360 8.0 25.7 0.00 0.10 0.00 85 1013.9
20260904081316 26 360 11.3 25.7 0.00 0.10 0.00 85 1013.9
20260904081217 26 360 11.3 25.7 0.00 0.10 0.00 85 1013.9
20260904081118 26 360 12.9 25.7 0.00 0.10 0.00 85 1013.9
20260904081020 26 360 11.3 25.7 0.00 0.10 0.00 85 1013.9
20260904080920 26 360 8.0 24.1 0.00 0.10 0.00 85 1014.0
20260904080825 26 360 8.0 24.1 0.00 0.10 0.00 85 1014.0
20260904080726 26 360 6.4 24.1 0.00 0.10 0.00 85 1013.9
20260904080626 26 360 8.0 24.1 0.00 0.10 0.00 85 1013.9
20260904080527 26 360 8.0 24.1 0.00 0.10 0.00 85 1013.9
20260904080427 26 360 6.4 19.3 0.00 0.10 0.00 85 1013.9
20260904080328 26 360 6.4 24.1 0.00 0.10 0.00 85 1014.0
20260904080230 26 186 6.4 24.1 0.00 0.10 0.00 85 1013.9
20260904080130 26 360 6.4 24.1 0.00 0.10 0.00 85 1014.0
20260904080051 26 360 8.0 24.1 0.00 0.10 0.00 85 1013.9
20260904075930 26 360 8.0 24.1 0.00 0.10 0.00 85 1013.9
20260904075832 26 360 9.7 24.1 0.00 0.10 0.00 85 1013.9
20260904075751 26 360 9.7 25.7 0.00 0.10 0.00 84 1013.9
20260904075630 26 360 12.9 25.7 0.00 0.10 0.00 84 1013.9
20260904075530 26 360 12.9 25.7 0.00 0.10 0.00 84 1013.9
20260904075434 26 360 11.3 25.7 0.00 0.10 0.00 85 1013.9
20260904075354 26 360 9.7 25.7 0.00 0.10 0.00 84 1013.9
20260904075255 26 360 11.3 25.7 0.00 0.10 0.00 84 1014.0
20260904075134 26 360 14.5 25.7 0.00 0.10 0.00 84 1013.9
20260904075035 26 360 14.5 25.7 0.00 0.10 0.00 84 1013.9
20260904074954 26 360 14.5 25.7 0.00 0.10 0.00 84 1013.9
20260904074834 26 360 11.3 25.7 0.00 0.10 0.00 84 1014.0
20260904074731 26 360 11.3 25.7 0.00 0.10 0.00 84 1013.9
20260904074631 26 360 11.3 25.7 0.00 0.10 0.00 84 1014.0
20260904074551 26 360 12.9 25.7 0.00 0.10 0.00 84 1013.9
20260904074435 26 360 14.5 25.7 0.00 0.10 0.00 84 1014.0
20260904074315 26 360 11.3 25.7 0.00 0.10 0.00 84 1014.0
20260904074216 26 360 9.7 25.7 0.00 0.10 0.00 84 1014.0
20260904074116 26 360 8.0 25.7 0.00 0.10 0.00 84 1014.1
20260904074037 26 360 9.7 25.7 0.00 0.10 0.00 84 1014.0
20260904073916 26 360 9.7 25.7 0.00 0.10 0.00 84 1014.1
20260904073817 26 360 11.3 24.1 0.00 0.10 0.00 84 1014.1
20260904073722 26 360 12.9 24.1 0.00 0.10 0.00 84 1014.1
20260904073622 26 360 14.5 24.1 0.00 0.10 0.00 84 1014.1
20260904073523 26 360 11.3 24.1 0.00 0.10 0.00 84 1014.2
20260904073425 26 360 8.0 27.4 0.00 0.10 0.00 84 1014.2
20260904073346 26 360 6.4 29.0 0.00 0.10 0.00 84 1014.2
20260904073225 26 360 8.0 29.0 0.00 0.10 0.00 84 1014.1
20260904073148 26 360 9.7 29.0 0.00 0.10 0.00 84 1014.1
20260904073032 26 360 9.7 29.0 0.00 0.10 0.00 84 1014.1
20260904072933 26 360 9.7 29.0 0.00 0.10 0.00 84 1014.1
20260904072816 26 360 11.3 29.0 0.00 0.10 0.00 84 1014.2
20260904072716 26 360 16.1 29.0 0.00 0.10 0.00 84 1014.2
20260904072617 26 360 14.5 29.0 0.00 0.10 0.00 84 1014.2
20260904072537 26 360 14.5 29.0 0.00 0.10 0.00 84 1014.1
20260904072419 26 360 14.5 29.0 0.00 0.10 0.00 84 1014.2
20260904072323 26 360 14.5 29.0 0.00 0.10 0.00 84 1014.2
20260904072244 26 175 16.1 29.0 0.00 0.10 0.00 84 1014.1
20260904072123 26 360 14.5 29.0 0.00 0.10 0.00 84 1014.1
20260904072024 26 360 11.3 20.9 0.00 0.10 0.00 84 1014.1
20260904071924 26 360 11.3 20.9 0.00 0.10 0.00 84 1014.1
20260904071826 26 360 11.3 20.9 0.00 0.10 0.00 84 1014.2
20260904071727 26 360 12.9 20.9 0.00 0.10 0.00 84 1014.2
20260904071631 26 360 11.3 20.9 0.00 0.10 0.00 84 1014.2
20260904071532 26 360 9.7 19.3 0.00 0.10 0.00 84 1014.2
20260904071434 26 360 6.4 19.3 0.00 0.10 0.00 83 1014.2
20260904071354 26 360 6.4 19.3 0.00 0.10 0.00 83 1014.3
20260904071233 26 360 8.0 19.3 0.00 0.10 0.00 83 1014.2
20260904071134 26 360 11.3 19.3 0.00 0.10 0.00 83 1014.3
20260904071056 26 360 11.3 19.3 0.00 0.10 0.00 83 1014.2
20260904070919 26 360 11.3 19.3 0.00 0.10 0.00 83 1014.3
20260904070839 26 360 8.0 19.3 0.00 0.10 0.00 83 1014.3
20260904070719 26 360 9.7 19.3 0.00 0.10 0.00 83 1014.2
20260904070621 26 360 8.0 19.3 0.00 0.10 0.00 83 1014.3
20260904070522 26 360 8.0 20.9 0.00 0.10 0.00 83 1014.3
20260904070443 26 360 8.0 20.9 0.00 0.10 0.00 83 1014.3
20260904070322 26 360 9.7 20.9 0.00 0.10 0.00 83 1014.3
20260904070223 26 360 11.3 20.9 0.00 0.10 0.00 83 1014.3
20260904070128 26 360 11.3 20.9 0.00 0.10 0.00 83 1014.3
20260904070029 26 360 11.3 22.5 0.00 0.10 0.00 83 1014.4
20260904065931 26 360 11.3 22.5 0.00 0.10 0.00 83 1014.4
20260904065833 26 360 11.3 22.5 0.00 0.10 0.00 83 1014.3
20260904065733 26 360 11.3 22.5 0.00 0.10 0.00 83 1014.3
20260904065634 26 360 11.3 22.5 0.00 0.10 0.00 83 1014.4
20260904065519 26 360 12.9 22.5 0.00 0.10 0.00 83 1014.4
20260904065418 26 360 11.3 20.9 0.00 0.10 0.00 83 1014.4
20260904065320 26 360 11.3 20.9 0.00 0.10 0.00 83 1014.4
20260904065221 26 360 9.7 20.9 0.00 0.10 0.00 83 1014.4
20260904065121 26 360 9.7 20.9 0.00 0.10 0.00 83 1014.4
20260904065021 26 360 9.7 22.5 0.00 0.10 0.00 83 1014.4
20260904064920 26 360 9.7 22.5 0.00 0.10 0.00 83 1014.4
20260904064825 26 360 8.0 24.1 0.00 0.10 0.00 83 1014.4
20260904064725 26 360 8.0 24.1 0.00 0.10 0.00 83 1014.4
20260904064645 26 360 8.0 24.1 0.00 0.10 0.00 83 1014.4
20260904064525 26 360 8.0 24.1 0.00 0.10 0.00 83 1014.4
20260904064446 26 360 11.3 24.1 0.00 0.10 0.00 83 1014.3
20260904064325 26 360 12.9 24.1 0.00 0.10 0.00 83 1014.3
20260904064247 26 360 12.9 30.6 0.00 0.10 0.00 83 1014.4
20260904064126 26 360 11.3 30.6 0.00 0.10 0.00 83 1014.4
20260904064026 26 360 8.0 30.6 0.00 0.10 0.00 83 1014.3
20260904063931 26 360 8.0 30.6 0.00 0.10 0.00 83 1014.3
20260904063832 26 360 8.0 30.6 0.00 0.10 0.00 83 1014.3
20260904063753 26 360 11.3 30.6 0.00 0.10 0.00 83 1014.3
20260904063653 26 360 11.3 30.6 0.00 0.10 0.00 83 1014.4
20260904063552 26 360 11.3 30.6 0.00 0.10 0.00 83 1014.3
20260904063431 26 360 11.3 20.9 0.00 0.10 0.00 83 1014.4
20260904063332 26 360 9.7 20.9 0.00 0.10 0.00 83 1014.4
20260904063252 26 360 9.7 20.9 0.00 0.10 0.00 83 1014.3
20260904063116 26 360 8.0 20.9 0.00 0.10 0.00 83 1014.4
20260904063016 26 360 9.7 20.9 0.00 0.10 0.00 83 1014.4
20260904062918 26 360 9.7 20.9 0.00 0.10 0.00 83 1014.4
20260904062820 26 360 11.3 20.9 0.00 0.10 0.00 83 1014.4
20260904062719 26 360 12.9 20.9 0.00 0.10 0.00 83 1014.3
20260904062619 26 360 14.5 20.9 0.00 0.10 0.00 83 1014.3
20260904062524 26 360 12.9 20.9 0.00 0.10 0.00 83 1014.3
20260904062444 26 360 11.3 20.9 0.00 0.10 0.00 83 1014.3
20260904062323 26 360 9.7 19.3 0.00 0.10 0.00 82 1014.3
20260904062223 26 360 9.7 19.3 0.00 0.10 0.00 82 1014.3
20260904062124 26 360 11.3 19.3 0.00 0.10 0.00 82 1014.3
20260904062024 26 360 11.3 19.3 0.00 0.10 0.00 82 1014.4
20260904061925 26 360 9.7 24.1 0.00 0.10 0.00 82 1014.3
20260904061830 26 360 9.7 24.1 0.00 0.10 0.00 82 1014.3
20260904061730 26 360 9.7 24.1 0.00 0.10 0.00 82 1014.3
20260904061630 26 360 9.7 24.1 0.00 0.10 0.00 82 1014.4
20260904061530 26 360 11.3 24.1 0.00 0.10 0.00 82 1014.3
20260904061431 26 360 11.3 24.1 0.00 0.10 0.00 82 1014.4
20260904061331 26 360 12.9 27.4 0.00 0.10 0.00 82 1014.3
20260904061251 26 360 12.9 27.4 0.00 0.10 0.00 82 1014.4
20260904061151 26 360 14.5 27.4 0.00 0.10 0.00 82 1014.4
20260904061034 26 360 12.9 27.4 0.00 0.10 0.00 82 1014.3
20260904060935 26 360 11.3 27.4 0.00 0.10 0.00 82 1014.4
20260904060854 26 360 12.9 27.4 0.00 0.10 0.00 82 1014.3
20260904060734 26 360 14.5 27.4 0.00 0.10 0.00 82 1014.4
20260904060655 26 360 16.1 27.4 0.00 0.10 0.00 82 1014.4
20260904060535 26 360 14.5 27.4 0.00 0.10 0.00 82 1014.4
20260904060435 26 360 14.5 30.6 0.00 0.10 0.00 82 1014.4
20260904060319 26 360 14.5 30.6 0.00 0.10 0.00 82 1014.4
20260904060219 26 360 12.9 30.6 0.00 0.10 0.00 82 1014.4
20260904060140 26 360 11.3 30.6 0.00 0.10 0.00 82 1014.3
20260904060020 26 360 9.7 30.6 0.00 0.10 0.00 82 1014.3
20260904055918 26 360 11.3 30.6 0.00 0.10 0.00 82 1014.4
20260904055820 26 360 14.5 30.6 0.00 0.10 0.00 81 1014.4
20260904055720 26 360 14.5 30.6 0.00 0.10 0.10 81 1014.4
20260904055626 26 360 16.1 30.6 0.00 0.10 0.10 81 1014.3
20260904055527 26 360 16.1 27.4 0.00 0.10 0.10 81 1014.3
20260904055427 26 360 16.1 27.4 0.00 0.10 0.10 81 1014.4
20260904055327 26 360 16.1 27.4 0.00 0.10 0.10 81 1014.4
20260904055228 26 360 16.1 27.4 0.00 0.10 0.10 81 1014.4
20260904055129 26 360 17.7 27.4 0.00 0.10 0.10 81 1014.4
20260904055030 26 360 17.7 27.4 0.00 0.10 0.10 81 1014.3
20260904054934 26 360 14.5 27.4 0.00 0.10 0.10 81 1014.4
20260904054835 26 360 14.5 29.0 0.00 0.10 0.10 81 1014.4
20260904054735 26 360 12.9 29.0 0.00 0.10 0.10 81 1014.4
20260904054635 26 360 16.1 29.0 0.00 0.10 0.10 81 1014.3
20260904054517 26 360 17.7 29.0 0.00 0.10 0.10 81 1014.4
20260904054437 26 360 16.1 32.2 0.00 0.10 0.10 81 1014.3
20260904054337 26 360 14.5 32.2 0.00 0.10 0.10 81 1014.3
20260904054220 26 360 14.5 33.8 0.00 0.10 0.10 81 1014.3
20260904054141 26 360 14.5 33.8 0.00 0.10 0.10 81 1014.3
20260904054021 26 360 16.1 33.8 0.00 0.10 0.10 81 1014.3
20260904053921 26 360 14.5 33.8 0.00 0.10 0.10 81 1014.3
20260904053822 26 360 14.5 33.8 0.00 0.10 0.10 81 1014.2
20260904053723 26 360 14.5 33.8 0.00 0.10 0.10 81 1014.2
20260904053624 26 360 16.1 33.8 0.00 0.10 0.10 81 1014.2
20260904053545 26 360 19.3 33.8 0.00 0.10 0.10 81 1014.2
20260904053448 26 360 20.9 33.8 0.00 0.10 0.10 81 1014.3
20260904053328 26 360 19.3 30.6 0.00 0.10 0.10 81 1014.2
20260904053248 26 360 17.7 29.0 0.00 0.10 0.10 81 1014.3
20260904053128 26 360 14.5 27.4 0.00 0.10 0.10 81 1014.1
20260904053028 26 360 14.5 30.6 0.00 0.10 0.10 81 1014.2
20260904052929 26 360 16.1 30.6 0.00 0.10 0.10 81 1014.3
20260904052830 26 360 16.1 30.6 0.00 0.10 0.10 81 1014.2
20260904052749 26 360 16.1 30.6 0.00 0.10 0.10 81 1014.2
20260904052633 26 360 14.5 30.6 0.00 0.10 0.10 81 1014.2
20260904052533 26 360 14.5 30.6 0.00 0.10 0.10 80 1014.2
20260904052434 26 360 14.5 30.6 0.00 0.10 0.10 80 1014.2
20260904052333 26 360 16.1 30.6 0.00 0.10 0.10 80 1014.2
20260904052254 26 360 16.1 30.6 0.00 0.10 0.10 80 1014.1
20260904052133 26 360 14.5 27.4 0.00 0.10 0.10 80 1014.2
20260904052054 26 360 14.5 27.4 0.00 0.10 0.10 80 1014.1
20260904051933 26 360 14.5 27.4 0.00 0.10 0.10 80 1014.1
20260904051817 26 360 16.1 29.0 0.00 0.10 0.10 80 1014.1
20260904051718 26 360 17.7 29.0 0.00 0.10 0.10 80 1014.1
20260904051639 26 360 17.7 29.0 0.00 0.10 0.10 80 1014.1
20260904051519 26 360 17.7 29.0 0.00 0.10 0.10 80 1014.1
20260904051417 26 360 17.7 29.0 0.00 0.10 0.10 80 1014.1
20260904051318 26 360 17.7 29.0 0.00 0.10 0.10 80 1014.1
20260904051218 26 180 17.7 29.0 0.00 0.10 0.10 80 1014.1
20260904051123 26 360 16.1 29.0 0.00 0.10 0.10 80 1014.1
20260904051044 26 360 16.1 29.0 0.00 0.10 0.10 80 1014.1
20260904050925 26 360 16.1 24.1 0.00 0.10 0.10 80 1014.1
20260904050825 26 360 16.1 24.1 0.00 0.10 0.10 80 1014.1
20260904050727 26 360 17.7 24.1 0.00 0.10 0.10 80 1014.1
20260904050628 26 360 16.1 24.1 0.00 0.10 0.10 80 1014.0
20260904050529 26 360 17.7 24.1 0.00 0.10 0.10 80 1014.1
20260904050432 26 360 17.7 24.1 0.00 0.10 0.10 80 1014.1
20260904050333 26 360 16.1 24.1 0.00 0.10 0.10 80 1014.1
20260904050234 26 360 17.7 24.1 0.00 0.10 0.10 80 1014.1
20260904050134 26 360 16.1 24.1 0.00 0.10 0.10 80 1014.1
20260904050036 26 360 16.1 24.1 0.00 0.10 0.10 80 1014.1
20260904045929 26 360 16.1 24.1 0.00 0.10 0.10 80 1014.2
20260904045832 26 360 16.1 24.1 0.00 0.10 0.10 80 1014.1
20260904045734 26 161 16.1 24.1 0.00 0.10 0.10 80 1014.2
20260904045635 26 360 16.1 24.1 0.00 0.10 0.10 80 1014.2
20260904045535 26 161 16.1 22.5 0.00 0.10 0.10 80 1014.2
20260904045435 26 180 16.1 22.5 0.00 0.10 0.10 80 1014.2
20260904045356 26 360 17.7 24.1 0.00 0.10 0.10 80 1014.2
20260904045235 26 360 17.7 33.8 0.00 0.10 0.10 80 1014.2
20260904045120 26 360 16.1 33.8 0.00 0.10 0.10 80 1014.1
20260904045020 26 360 16.1 33.8 0.00 0.10 0.10 80 1014.2
20260904044921 26 360 14.5 33.8 0.00 0.10 0.10 80 1014.1
20260904044823 26 360 14.5 33.8 0.00 0.10 0.10 80 1014.2
20260904044724 26 360 17.7 33.8 0.00 0.10 0.10 80 1014.1
20260904044624 26 360 20.9 33.8 0.00 0.10 0.10 80 1014.1
20260904044544 26 360 20.9 33.8 0.00 0.10 0.10 80 1014.1
20260904044445 26 360 19.3 32.2 0.00 0.10 0.10 80 1014.1
20260904044330 26 360 19.3 25.7 0.00 0.10 0.10 80 1014.1